Wetterdaten: Donnerstag, 06.02.2014
Datum Zeit Temp. Aussen +5cm Feuchte Auss Luftdruck Regen Sonnenschein Regendauer UV Solar Windben
06.02.2014 00:00 7,8 C 5,6 C 80 % 997,9 hPa 0,0 l/m 0 min 0 min 0,0 UV-I 0 W/m 12,9 km/h (3 Bft)
06.02.2014 00:02 7,7 C 6,1 C 80 % 998,0 hPa 0,0 l/m 0 min 0 min 0,0 UV-I 0 W/m 28,3 km/h (4 Bft)
06.02.2014 00:04 7,8 C 6,1 C 81 % 997,9 hPa 0,0 l/m 0 min 0 min 0,0 UV-I 0 W/m 30,9 km/h (5 Bft)
06.02.2014 00:06 7,8 C 6,1 C 81 % 998,2 hPa 0,0 l/m 0 min 0 min 0,0 UV-I 0 W/m 23,2 km/h (4 Bft)
06.02.2014 00:08 7,8 C 6,1 C 81 % 998,0 hPa 0,0 l/m 0 min 0 min 0,0 UV-I 0 W/m 28,3 km/h (4 Bft)
06.02.2014 00:10 7,8 C 6,1 C 81 % 998,0 hPa 0,0 l/m 0 min 0 min 0,0 UV-I 0 W/m 25,7 km/h (4 Bft)
06.02.2014 00:12 7,8 C 6,1 C 81 % 998,1 hPa 0,0 l/m 0 min 0 min 0,0 UV-I 0 W/m 20,6 km/h (4 Bft)
06.02.2014 00:14 7,8 C 6,1 C 81 % 998,0 hPa 0,0 l/m 0 min 0 min 0,0 UV-I 0 W/m 12,9 km/h (3 Bft)
06.02.2014 00:16 7,7 C 6,1 C 81 % 998,0 hPa 0,0 l/m 0 min 0 min 0,0 UV-I 0 W/m 15,4 km/h (3 Bft)
06.02.2014 00:18 7,7 C 6,1 C 81 % 998,2 hPa 0,0 l/m 0 min 0 min 0,0 UV-I 0 W/m 25,7 km/h (4 Bft)
06.02.2014 00:20 7,7 C 6,1 C 81 % 998,2 hPa 0,0 l/m 0 min 0 min 0,0 UV-I 0 W/m 36,0 km/h (5 Bft)
06.02.2014 00:22 7,8 C 6,1 C 81 % 998,0 hPa 0,0 l/m 0 min 0 min 0,0 UV-I 0 W/m 23,2 km/h (4 Bft)
06.02.2014 00:24 7,8 C 6,1 C 81 % 998,2 hPa 0,0 l/m 0 min 0 min 0,0 UV-I 0 W/m 20,6 km/h (4 Bft)
06.02.2014 00:26 7,8 C 6,1 C 81 % 998,1 hPa 0,0 l/m 0 min 0 min 0,0 UV-I 0 W/m 18,0 km/h (3 Bft)
06.02.2014 00:28 7,7 C 6,1 C 82 % 998,0 hPa 0,0 l/m 0 min 0 min 0,0 UV-I 0 W/m 10,3 km/h (2 Bft)
06.02.2014 00:30 7,7 C 5,6 C 82 % 998,1 hPa 0,0 l/m 0 min 0 min 0,0 UV-I 0 W/m 18,0 km/h (3 Bft)
06.02.2014 00:32 7,7 C 5,6 C 82 % 998,1 hPa 0,0 l/m 0 min 0 min 0,0 UV-I 0 W/m 12,9 km/h (3 Bft)
06.02.2014 00:34 7,7 C 5,6 C 82 % 998,1 hPa 0,0 l/m 0 min 0 min 0,0 UV-I 0 W/m 20,6 km/h (4 Bft)
06.02.2014 00:36 7,7 C 5,6 C 82 % 998,2 hPa 0,0 l/m 0 min 0 min 0,0 UV-I 0 W/m 18,0 km/h (3 Bft)
06.02.2014 00:38 7,7 C 5,6 C 82 % 998,1 hPa 0,0 l/m 0 min 0 min 0,0 UV-I 0 W/m 25,7 km/h (4 Bft)
06.02.2014 00:40 7,6 C 6,1 C 82 % 998,2 hPa 0,0 l/m 0 min 0 min 0,0 UV-I 0 W/m 30,9 km/h (5 Bft)
06.02.2014 00:42 7,7 C 6,1 C 83 % 998,1 hPa 0,0 l/m 0 min 0 min 0,0 UV-I 0 W/m 23,2 km/h (4 Bft)
06.02.2014 00:44 7,7 C 6,1 C 83 % 998,2 hPa 0,0 l/m 0 min 0 min 0,0 UV-I 0 W/m 25,7 km/h (4 Bft)
06.02.2014 00:46 7,7 C 6,1 C 83 % 998,2 hPa 0,0 l/m 0 min 0 min 0,0 UV-I 0 W/m 25,7 km/h (4 Bft)
06.02.2014 00:48 7,7 C 6,1 C 82 % 998,2 hPa 0,0 l/m 0 min 0 min 0,0 UV-I 0 W/m 18,0 km/h (3 Bft)
06.02.2014 00:50 7,7 C 6,1 C 82 % 998,3 hPa 0,0 l/m 0 min 0 min 0,0 UV-I 0 W/m 20,6 km/h (4 Bft)
06.02.2014 00:52 7,7 C 6,1 C 83 % 998,3 hPa 0,0 l/m 0 min 0 min 0,0 UV-I 0 W/m 30,9 km/h (5 Bft)
06.02.2014 00:54 7,7 C 6,1 C 83 % 998,3 hPa 0,0 l/m 0 min 0 min 0,0 UV-I 0 W/m 36,0 km/h (5 Bft)
06.02.2014 00:56 7,7 C 6,1 C 83 % 998,4 hPa 0,0 l/m 0 min 0 min 0,0 UV-I 0 W/m 30,9 km/h (5 Bft)
06.02.2014 00:58 7,7 C 6,1 C 83 % 998,4 hPa 0,0 l/m 0 min 0 min 0,0 UV-I 0 W/m 30,9 km/h (5 Bft)
06.02.2014 01:00 7,8 C 6,1 C 83 % 998,4 hPa 0,0 l/m 0 min 0 min 0,0 UV-I 0 W/m 23,2 km/h (4 Bft)
06.02.2014 01:02 7,8 C 6,1 C 83 % 998,4 hPa 0,0 l/m 0 min 0 min 0,0 UV-I 0 W/m 23,2 km/h (4 Bft)
06.02.2014 01:04 7,7 C 6,1 C 83 % 998,4 hPa 0,0 l/m 0 min 0 min 0,0 UV-I 0 W/m 10,3 km/h (2 Bft)
06.02.2014 01:06 7,7 C 6,1 C 83 % 998,4 hPa 0,0 l/m 0 min 0 min 0,0 UV-I 0 W/m 25,7 km/h (4 Bft)
06.02.2014 01:08 7,7 C 6,1 C 83 % 998,6 hPa 0,0 l/m 0 min 0 min 0,0 UV-I 0 W/m 33,5 km/h (5 Bft)
06.02.2014 01:10 7,7 C 6,1 C 83 % 998,5 hPa 0,0 l/m 0 min 0 min 0,0 UV-I 0 W/m 20,6 km/h (4 Bft)
06.02.2014 01:12 7,7 C 6,1 C 83 % 998,5 hPa 0,0 l/m 0 min 0 min 0,0 UV-I 0 W/m 10,3 km/h (2 Bft)
06.02.2014 01:14 7,7 C 6,1 C 83 % 998,5 hPa 0,0 l/m 0 min 0 min 0,0 UV-I 0 W/m 20,6 km/h (4 Bft)
06.02.2014 01:16 7,7 C 6,1 C 83 % 998,5 hPa 0,0 l/m 0 min 0 min 0,0 UV-I 0 W/m 30,9 km/h (5 Bft)
06.02.2014 01:18 7,7 C 6,1 C 83 % 998,5 hPa 0,0 l/m 0 min 0 min 0,0 UV-I 0 W/m 25,7 km/h (4 Bft)
06.02.2014 01:20 7,7 C 6,1 C 83 % 998,7 hPa 0,0 l/m 0 min 0 min 0,0 UV-I 0 W/m 33,5 km/h (5 Bft)
06.02.2014 01:22 7,7 C 6,1 C 83 % 998,7 hPa 0,0 l/m 0 min 0 min 0,0 UV-I 0 W/m 23,2 km/h (4 Bft)
06.02.2014 01:24 7,7 C 6,1 C 82 % 998,8 hPa 0,0 l/m 0 min 0 min 0,0 UV-I 0 W/m 33,5 km/h (5 Bft)
06.02.2014 01:26 7,8 C 6,1 C 83 % 998,8 hPa 0,0 l/m 0 min 0 min 0,0 UV-I 0 W/m 28,3 km/h (4 Bft)
06.02.2014 01:28 7,8 C 6,1 C 82 % 998,8 hPa 0,0 l/m 0 min 0 min 0,0 UV-I 0 W/m 25,7 km/h (4 Bft)
06.02.2014 01:30 7,8 C 6,1 C 82 % 998,8 hPa 0,0 l/m 0 min 0 min 0,0 UV-I 0 W/m 30,9 km/h (5 Bft)
06.02.2014 01:32 7,8 C 6,1 C 82 % 999,0 hPa 0,0 l/m 0 min 0 min 0,0 UV-I 0 W/m 36,0 km/h (5 Bft)
06.02.2014 01:34 7,8 C 6,1 C 82 % 998,9 hPa 0,0 l/m 0 min 0 min 0,0 UV-I 0 W/m 33,5 km/h (5 Bft)
06.02.2014 01:36 7,8 C 6,1 C 82 % 998,7 hPa 0,0 l/m 0 min 0 min 0,0 UV-I 0 W/m 12,9 km/h (3 Bft)
06.02.2014 01:38 7,8 C 6,1 C 82 % 999,0 hPa 0,0 l/m 0 min 0 min 0,0 UV-I 0 W/m 12,9 km/h (3 Bft)
06.02.2014 01:40 7,8 C 6,1 C 82 % 998,9 hPa 0,0 l/m 0 min 0 min 0,0 UV-I 0 W/m 33,5 km/h (5 Bft)
06.02.2014 01:42 7,8 C 6,1 C 82 % 999,0 hPa 0,0 l/m 0 min 0 min 0,0 UV-I 0 W/m 23,2 km/h (4 Bft)
06.02.2014 01:44 7,8 C 6,1 C 82 % 999,0 hPa 0,0 l/m 0 min 0 min 0,0 UV-I 0 W/m 28,3 km/h (4 Bft)
06.02.2014 01:46 7,8 C 6,1 C 82 % 998,9 hPa 0,0 l/m 0 min 0 min 0,0 UV-I 0 W/m 28,3 km/h (4 Bft)
06.02.2014 01:48 7,8 C 6,1 C 82 % 999,1 hPa 0,0 l/m 0 min 0 min 0,0 UV-I 0 W/m 23,2 km/h (4 Bft)
06.02.2014 01:50 7,8 C 6,1 C 82 % 999,1 hPa 0,0 l/m 0 min 0 min 0,0 UV-I 0 W/m 20,6 km/h (4 Bft)
06.02.2014 01:52 7,8 C 6,1 C 82 % 999,1 hPa 0,0 l/m 0 min 0 min 0,0 UV-I 0 W/m 20,6 km/h (4 Bft)
06.02.2014 01:54 7,8 C 6,1 C 82 % 999,1 hPa 0,0 l/m 0 min 0 min 0,0 UV-I 0 W/m 25,7 km/h (4 Bft)
06.02.2014 01:56 7,8 C 6,1 C 82 % 999,2 hPa 0,0 l/m 0 min 0 min 0,0 UV-I 0 W/m 12,9 km/h (3 Bft)
06.02.2014 01:58 7,8 C 6,1 C 82 % 999,3 hPa 0,0 l/m 0 min 0 min 0,0 UV-I 0 W/m 10,3 km/h (2 Bft)
06.02.2014 02:00 7,8 C 5,6 C 82 % 999,4 hPa 0,0 l/m 0 min 0 min 0,0 UV-I 0 W/m 20,6 km/h (4 Bft)
06.02.2014 02:02 7,7 C 6,1 C 82 % 999,4 hPa 0,0 l/m 0 min 0 min 0,0 UV-I 0 W/m 23,2 km/h (4 Bft)
06.02.2014 02:04 7,7 C 6,1 C 82 % 999,3 hPa 0,0 l/m 0 min 0 min 0,0 UV-I 0 W/m 15,4 km/h (3 Bft)
06.02.2014 02:06 7,7 C 6,1 C 82 % 999,4 hPa 0,0 l/m 0 min 0 min 0,0 UV-I 0 W/m 12,9 km/h (3 Bft)
06.02.2014 02:08 7,7 C 6,1 C 82 % 999,4 hPa 0,0 l/m 0 min 0 min 0,0 UV-I 0 W/m 18,0 km/h (3 Bft)
06.02.2014 02:10 7,7 C 6,1 C 83 % 999,5 hPa 0,0 l/m 0 min 0 min 0,0 UV-I 0 W/m 18,0 km/h (3 Bft)
06.02.2014 02:12 7,7 C 5,6 C 83 % 999,5 hPa 0,0 l/m 0 min 0 min 0,0 UV-I 0 W/m 18,0 km/h (3 Bft)
06.02.2014 02:14 7,7 C 6,1 C 83 % 999,5 hPa 0,0 l/m 0 min 0 min 0,0 UV-I 0 W/m 15,4 km/h (3 Bft)
06.02.2014 02:16 7,7 C 6,1 C 83 % 999,5 hPa 0,0 l/m 0 min 0 min 0,0 UV-I 0 W/m 18,0 km/h (3 Bft)
06.02.2014 02:18 7,7 C 6,1 C 83 % 999,7 hPa 0,0 l/m 0 min 0 min 0,0 UV-I 0 W/m 18,0 km/h (3 Bft)
06.02.2014 02:20 7,7 C 5,6 C 83 % 999,6 hPa 0,0 l/m 0 min 0 min 0,0 UV-I 0 W/m 12,9 km/h (3 Bft)
06.02.2014 02:22 7,7 C 6,1 C 83 % 999,6 hPa 0,0 l/m 0 min 0 min 0,0 UV-I 0 W/m 20,6 km/h (4 Bft)
06.02.2014 02:24 7,7 C 6,1 C 83 % 999,6 hPa 0,0 l/m 0 min 0 min 0,0 UV-I 0 W/m 20,6 km/h (4 Bft)
06.02.2014 02:26 7,7 C 6,1 C 83 % 999,6 hPa 0,0 l/m 0 min 0 min 0,0 UV-I 0 W/m 15,4 km/h (3 Bft)
06.02.2014 02:28 7,7 C 6,1 C 83 % 999,7 hPa 0,0 l/m 0 min 0 min 0,0 UV-I 0 W/m 25,7 km/h (4 Bft)
06.02.2014 02:30 7,7 C 6,1 C 83 % 999,8 hPa 0,0 l/m 0 min 0 min 0,0 UV-I 0 W/m 20,6 km/h (4 Bft)
06.02.2014 02:32 7,7 C 6,1 C 83 % 999,7 hPa 0,0 l/m 0 min 0 min 0,0 UV-I 0 W/m 20,6 km/h (4 Bft)
06.02.2014 02:34 7,7 C 6,1 C 83 % 999,7 hPa 0,0 l/m 0 min 0 min 0,0 UV-I 0 W/m 15,4 km/h (3 Bft)
06.02.2014 02:36 7,8 C 6,1 C 83 % 999,7 hPa 0,0 l/m 0 min 0 min 0,0 UV-I 0 W/m 25,7 km/h (4 Bft)
06.02.2014 02:38 7,8 C 6,1 C 83 % 999,9 hPa 0,0 l/m 0 min 0 min 0,0 UV-I 0 W/m 15,4 km/h (3 Bft)
06.02.2014 02:40 7,8 C 6,1 C 83 % 999,8 hPa 0,0 l/m 0 min 0 min 0,0 UV-I 0 W/m 18,0 km/h (3 Bft)
06.02.2014 02:42 7,8 C 6,1 C 83 % 999,7 hPa 0,0 l/m 0 min 0 min 0,0 UV-I 0 W/m 12,9 km/h (3 Bft)
06.02.2014 02:44 7,8 C 6,1 C 83 % 999,9 hPa 0,0 l/m 0 min 0 min 0,0 UV-I 0 W/m 20,6 km/h (4 Bft)
06.02.2014 02:46 7,8 C 6,1 C 83 % 999,9 hPa 0,0 l/m 0 min 0 min 0,0 UV-I 0 W/m 12,9 km/h (3 Bft)
06.02.2014 02:48 7,8 C 6,1 C 83 % 1000,0 hPa 0,0 l/m 0 min 0 min 0,0 UV-I 0 W/m 28,3 km/h (4 Bft)
06.02.2014 02:50 7,8 C 6,1 C 83 % 999,9 hPa 0,0 l/m 0 min 0 min 0,0 UV-I 0 W/m 20,6 km/h (4 Bft)
06.02.2014 02:52 7,9 C 6,1 C 83 % 1000,0 hPa 0,0 l/m 0 min 0 min 0,0 UV-I 0 W/m 36,0 km/h (5 Bft)
06.02.2014 02:54 7,9 C 6,1 C 83 % 1000,0 hPa 0,0 l/m 0 min 0 min 0,0 UV-I 0 W/m 20,6 km/h (4 Bft)
06.02.2014 02:56 7,9 C 6,1 C 83 % 1000,0 hPa 0,0 l/m 0 min 0 min 0,0 UV-I 0 W/m 23,2 km/h (4 Bft)
06.02.2014 02:58 7,9 C 6,1 C 83 % 1000,0 hPa 0,0 l/m 0 min 0 min 0,0 UV-I 0 W/m 18,0 km/h (3 Bft)
06.02.2014 03:00 7,9 C 6,1 C 83 % 1000,0 hPa 0,0 l/m 0 min 0 min 0,0 UV-I 0 W/m 10,3 km/h (2 Bft)
06.02.2014 03:02 7,9 C 6,1 C 83 % 1000,0 hPa 0,0 l/m 0 min 0 min 0,0 UV-I 0 W/m 18,0 km/h (3 Bft)
06.02.2014 03:04 7,9 C 6,1 C 83 % 1000,1 hPa 0,0 l/m 0 min 0 min 0,0 UV-I 0 W/m 15,4 km/h (3 Bft)
06.02.2014 03:06 7,9 C 6,1 C 83 % 1000,1 hPa 0,0 l/m 0 min 0 min 0,0 UV-I 0 W/m 12,9 km/h (3 Bft)
06.02.2014 03:08 7,9 C 6,1 C 83 % 1000,1 hPa 0,0 l/m 0 min 0 min 0,0 UV-I 0 W/m 18,0 km/h (3 Bft)
06.02.2014 03:10 7,9 C 6,1 C 83 % 1000,1 hPa 0,0 l/m 0 min 0 min 0,0 UV-I 0 W/m 12,9 km/h (3 Bft)
06.02.2014 03:12 7,9 C 6,1 C 83 % 1000,3 hPa 0,0 l/m 0 min 0 min 0,0 UV-I 0 W/m 18,0 km/h (3 Bft)
06.02.2014 03:14 7,9 C 6,1 C 82 % 1000,3 hPa 0,0 l/m 0 min 0 min 0,0 UV-I 0 W/m 23,2 km/h (4 Bft)
06.02.2014 03:16 8,0 C 6,1 C 82 % 1000,2 hPa 0,0 l/m 0 min 0 min 0,0 UV-I 0 W/m 25,7 km/h (4 Bft)
06.02.2014 03:18 8,0 C 6,1 C 82 % 1000,2 hPa 0,0 l/m 0 min 0 min 0,0 UV-I 0 W/m 12,9 km/h (3 Bft)
06.02.2014 03:20 8,0 C 6,1 C 82 % 1000,3 hPa 0,0 l/m 0 min 0 min 0,0 UV-I 0 W/m 28,3 km/h (4 Bft)
06.02.2014 03:22 8,0 C 6,1 C 82 % 1000,2 hPa 0,0 l/m 0 min 0 min 0,0 UV-I 0 W/m 10,3 km/h (2 Bft)
06.02.2014 03:24 7,9 C 6,1 C 82 % 1000,2 hPa 0,0 l/m 0 min 0 min 0,0 UV-I 0 W/m 18,0 km/h (3 Bft)
06.02.2014 03:26 7,9 C 6,1 C 82 % 1000,1 hPa 0,0 l/m 0 min 0 min 0,0 UV-I 0 W/m 18,0 km/h (3 Bft)
06.02.2014 03:28 7,9 C 6,1 C 82 % 1000,2 hPa 0,0 l/m 0 min 0 min 0,0 UV-I 0 W/m 23,2 km/h (4 Bft)
06.02.2014 03:30 7,9 C 6,1 C 82 % 1000,2 hPa 0,0 l/m 0 min 0 min 0,0 UV-I 0 W/m 20,6 km/h (4 Bft)
06.02.2014 03:32 7,9 C 6,1 C 82 % 1000,2 hPa 0,0 l/m 0 min 0 min 0,0 UV-I 0 W/m 23,2 km/h (4 Bft)
06.02.2014 03:34 7,9 C 6,1 C 82 % 1000,3 hPa 0,0 l/m 0 min 0 min 0,0 UV-I 0 W/m 12,9 km/h (3 Bft)
06.02.2014 03:36 7,9 C 6,1 C 82 % 1000,3 hPa 0,0 l/m 0 min 0 min 0,0 UV-I 0 W/m 20,6 km/h (4 Bft)
06.02.2014 03:38 7,9 C 6,1 C 82 % 1000,4 hPa 0,0 l/m 0 min 0 min 0,0 UV-I 0 W/m 23,2 km/h (4 Bft)
06.02.2014 03:40 7,9 C 6,1 C 82 % 1000,3 hPa 0,0 l/m 0 min 0 min 0,0 UV-I 0 W/m 10,3 km/h (2 Bft)
06.02.2014 03:42 7,9 C 6,1 C 82 % 1000,4 hPa 0,0 l/m 0 min 0 min 0,0 UV-I 0 W/m 15,4 km/h (3 Bft)
06.02.2014 03:44 7,9 C 6,1 C 82 % 1000,3 hPa 0,0 l/m 0 min 0 min 0,0 UV-I 0 W/m 23,2 km/h (4 Bft)
06.02.2014 03:46 7,9 C 6,7 C 82 % 1000,3 hPa 0,0 l/m 0 min 0 min 0,0 UV-I 0 W/m 18,0 km/h (3 Bft)
06.02.2014 03:48 7,9 C 6,7 C 82 % 1000,4 hPa 0,0 l/m 0 min 0 min 0,0 UV-I 0 W/m 25,7 km/h (4 Bft)
06.02.2014 03:50 7,9 C 6,1 C 82 % 1000,4 hPa 0,0 l/m 0 min 2 min 0,0 UV-I 0 W/m 10,3 km/h (2 Bft)
06.02.2014 03:52 7,9 C 6,1 C 82 % 1000,5 hPa 0,0 l/m 0 min 2 min 0,0 UV-I 0 W/m 12,9 km/h (3 Bft)
06.02.2014 03:54 7,9 C 6,1 C 83 % 1000,6 hPa 0,0 l/m 0 min 2 min 0,0 UV-I 0 W/m 15,4 km/h (3 Bft)
06.02.2014 03:56 7,9 C 5,6 C 83 % 1000,6 hPa 0,0 l/m 0 min 2 min 0,0 UV-I 0 W/m 10,3 km/h (2 Bft)
06.02.2014 03:58 7,9 C 5,6 C 84 % 1000,6 hPa 0,0 l/m 0 min 2 min 0,0 UV-I 0 W/m 20,6 km/h (4 Bft)
06.02.2014 04:00 7,8 C 5,6 C 84 % 1000,9 hPa 0,0 l/m 0 min 2 min 0,0 UV-I 0 W/m 23,2 km/h (4 Bft)
06.02.2014 04:02 7,7 C 5,6 C 84 % 1001,1 hPa 0,0 l/m 0 min 2 min 0,0 UV-I 0 W/m 23,2 km/h (4 Bft)
06.02.2014 04:04 7,7 C 5,0 C 84 % 1000,8 hPa 0,0 l/m 0 min 2 min 0,0 UV-I 0 W/m 23,2 km/h (4 Bft)
06.02.2014 04:06 7,6 C 5,0 C 84 % 1001,0 hPa 0,0 l/m 0 min 2 min 0,0 UV-I 0 W/m 18,0 km/h (3 Bft)
06.02.2014 04:08 7,4 C 5,0 C 83 % 1000,9 hPa 0,0 l/m 0 min 2 min 0,0 UV-I 0 W/m 18,0 km/h (3 Bft)
06.02.2014 04:10 7,4 C 5,0 C 84 % 1001,2 hPa 0,0 l/m 0 min 2 min 0,0 UV-I 0 W/m 23,2 km/h (4 Bft)
06.02.2014 04:12 7,3 C 5,6 C 84 % 1001,0 hPa 0,0 l/m 0 min 2 min 0,0 UV-I 0 W/m 36,0 km/h (5 Bft)
06.02.2014 04:14 7,3 C 5,6 C 84 % 1001,0 hPa 0,0 l/m 0 min 0 min 0,0 UV-I 0 W/m 23,2 km/h (4 Bft)
06.02.2014 04:16 7,2 C 5,6 C 84 % 1001,2 hPa 0,0 l/m 0 min 0 min 0,0 UV-I 0 W/m 15,4 km/h (3 Bft)
06.02.2014 04:18 7,2 C 5,6 C 84 % 1001,1 hPa 0,0 l/m 0 min 0 min 0,0 UV-I 0 W/m 10,3 km/h (2 Bft)
06.02.2014 04:20 7,2 C 5,6 C 85 % 1001,1 hPa 0,0 l/m 0 min 2 min 0,0 UV-I 0 W/m 7,7 km/h (2 Bft)
06.02.2014 04:22 7,2 C 5,6 C 85 % 1001,1 hPa 0,0 l/m 0 min 2 min 0,0 UV-I 0 W/m 18,0 km/h (3 Bft)
06.02.2014 04:24 7,1 C 5,6 C 85 % 1001,1 hPa 0,0 l/m 0 min 0 min 0,0 UV-I 0 W/m 15,4 km/h (3 Bft)
06.02.2014 04:26 7,1 C 5,6 C 85 % 1001,0 hPa 0,0 l/m 0 min 0 min 0,0 UV-I 0 W/m 12,9 km/h (3 Bft)
06.02.2014 04:28 7,1 C 5,6 C 85 % 1001,2 hPa 0,0 l/m 0 min 0 min 0,0 UV-I 0 W/m 23,2 km/h (4 Bft)
06.02.2014 04:30 7,0 C 5,6 C 85 % 1001,1 hPa 0,0 l/m 0 min 0 min 0,0 UV-I 0 W/m 12,9 km/h (3 Bft)
06.02.2014 04:32 7,0 C 5,0 C 85 % 1001,0 hPa 0,0 l/m 0 min 2 min 0,0 UV-I 0 W/m 25,7 km/h (4 Bft)
06.02.2014 04:34 6,9 C 5,0 C 85 % 1001,0 hPa 0,0 l/m 0 min 2 min 0,0 UV-I 0 W/m 23,2 km/h (4 Bft)
06.02.2014 04:36 6,9 C 5,0 C 85 % 1001,0 hPa 0,0 l/m 0 min 0 min 0,0 UV-I 0 W/m 5,1 km/h (1 Bft)
06.02.2014 04:38 6,9 C 5,0 C 85 % 1001,0 hPa 0,0 l/m 0 min 0 min 0,0 UV-I 0 W/m 23,2 km/h (4 Bft)
06.02.2014 04:40 6,9 C 5,0 C 85 % 1001,0 hPa 0,0 l/m 0 min 2 min 0,0 UV-I 0 W/m 15,4 km/h (3 Bft)
06.02.2014 04:42 6,9 C 5,0 C 85 % 1001,0 hPa 0,0 l/m 0 min 0 min 0,0 UV-I 0 W/m 20,6 km/h (4 Bft)
06.02.2014 04:44 6,8 C 5,0 C 85 % 1001,1 hPa 0,0 l/m 0 min 0 min 0,0 UV-I 0 W/m 10,3 km/h (2 Bft)
06.02.2014 04:46 6,8 C 5,0 C 85 % 1001,1 hPa 0,0 l/m 0 min 0 min 0,0 UV-I 0 W/m 5,1 km/h (1 Bft)
06.02.2014 04:48 6,8 C 5,0 C 85 % 1001,2 hPa 0,0 l/m 0 min 0 min 0,0 UV-I 0 W/m 15,4 km/h (3 Bft)
06.02.2014 04:50 6,7 C 5,0 C 86 % 1001,2 hPa 0,0 l/m 0 min 0 min 0,0 UV-I 0 W/m 12,9 km/h (3 Bft)
06.02.2014 04:52 6,7 C 5,0 C 86 % 1001,2 hPa 0,0 l/m 0 min 0 min 0,0 UV-I 0 W/m 7,7 km/h (2 Bft)
06.02.2014 04:54 6,7 C 5,0 C 86 % 1001,2 hPa 0,0 l/m 0 min 0 min 0,0 UV-I 0 W/m 10,3 km/h (2 Bft)
06.02.2014 04:56 6,6 C 5,0 C 87 % 1001,2 hPa 0,0 l/m 0 min 0 min 0,0 UV-I 0 W/m 10,3 km/h (2 Bft)
06.02.2014 04:58 6,6 C 5,0 C 87 % 1001,2 hPa 0,0 l/m 0 min 0 min 0,0 UV-I 0 W/m 15,4 km/h (3 Bft)
06.02.2014 05:00 6,5 C 4,4 C 87 % 1001,2 hPa 0,0 l/m 0 min 0 min 0,0 UV-I 0 W/m 5,1 km/h (1 Bft)
06.02.2014 05:02 6,4 C 4,4 C 87 % 1001,2 hPa 0,0 l/m 0 min 0 min 0,0 UV-I 0 W/m 12,9 km/h (3 Bft)
06.02.2014 05:04 6,4 C 4,4 C 87 % 1001,3 hPa 0,0 l/m 0 min 0 min 0,0 UV-I 0 W/m 12,9 km/h (3 Bft)
06.02.2014 05:06 6,4 C 4,4 C 87 % 1001,2 hPa 0,0 l/m 0 min 0 min 0,0 UV-I 0 W/m 7,7 km/h (2 Bft)
06.02.2014 05:08 6,4 C 4,4 C 87 % 1001,3 hPa 0,0 l/m 0 min 0 min 0,0 UV-I 0 W/m 7,7 km/h (2 Bft)
06.02.2014 05:10 6,3 C 4,4 C 88 % 1001,2 hPa 0,0 l/m 0 min 0 min 0,0 UV-I 0 W/m 7,7 km/h (2 Bft)
06.02.2014 05:12 6,3 C 4,4 C 88 % 1001,2 hPa 0,0 l/m 0 min 0 min 0,0 UV-I 0 W/m 7,7 km/h (2 Bft)
06.02.2014 05:14 6,2 C 4,4 C 88 % 1001,2 hPa 0,0 l/m 0 min 0 min 0,0 UV-I 0 W/m 0,0 km/h (0 Bft)
06.02.2014 05:16 6,2 C 4,4 C 88 % 1001,2 hPa 0,0 l/m 0 min 0 min 0,0 UV-I 0 W/m 5,1 km/h (1 Bft)
06.02.2014 05:18 6,2 C 4,4 C 88 % 1001,3 hPa 0,0 l/m 0 min 0 min 0,0 UV-I 0 W/m 0,0 km/h (0 Bft)
06.02.2014 05:20 6,2 C 4,4 C 88 % 1001,3 hPa 0,0 l/m 0 min 0 min 0,0 UV-I 0 W/m 10,3 km/h (2 Bft)
06.02.2014 05:22 6,2 C 4,4 C 88 % 1001,2 hPa 0,0 l/m 0 min 0 min 0,0 UV-I 0 W/m 15,4 km/h (3 Bft)
06.02.2014 05:24 6,2 C 4,4 C 88 % 1001,2 hPa 0,0 l/m 0 min 0 min 0,0 UV-I 0 W/m 12,9 km/h (3 Bft)
06.02.2014 05:26 6,2 C 4,4 C 88 % 1001,3 hPa 0,0 l/m 0 min 0 min 0,0 UV-I 0 W/m 5,1 km/h (1 Bft)
06.02.2014 05:28 6,2 C 4,4 C 88 % 1001,3 hPa 0,0 l/m 0 min 0 min 0,0 UV-I 0 W/m 10,3 km/h (2 Bft)
06.02.2014 05:30 6,2 C 4,4 C 88 % 1001,3 hPa 0,0 l/m 0 min 0 min 0,0 UV-I 0 W/m 10,3 km/h (2 Bft)
06.02.2014 05:32 6,2 C 4,4 C 88 % 1001,2 hPa 0,0 l/m 0 min 0 min 0,0 UV-I 0 W/m 0,0 km/h (0 Bft)
06.02.2014 05:34 6,2 C 4,4 C 88 % 1001,4 hPa 0,0 l/m 0 min 0 min 0,0 UV-I 0 W/m 5,1 km/h (1 Bft)
06.02.2014 05:36 6,2 C 4,4 C 88 % 1001,4 hPa 0,0 l/m 0 min 0 min 0,0 UV-I 0 W/m 5,1 km/h (1 Bft)
06.02.2014 05:38 6,2 C 4,4 C 88 % 1001,3 hPa 0,0 l/m 0 min 0 min 0,0 UV-I 0 W/m 12,9 km/h (3 Bft)
06.02.2014 05:40 6,2 C 4,4 C 88 % 1001,4 hPa 0,0 l/m 0 min 0 min 0,0 UV-I 0 W/m 10,3 km/h (2 Bft)
06.02.2014 05:42 6,3 C 4,4 C 88 % 1001,4 hPa 0,0 l/m 0 min 0 min 0,0 UV-I 0 W/m 2,6 km/h (1 Bft)
06.02.2014 05:44 6,3 C 4,4 C 88 % 1001,5 hPa 0,0 l/m 0 min 0 min 0,0 UV-I 0 W/m 0,0 km/h (0 Bft)
06.02.2014 05:46 6,3 C 4,4 C 88 % 1001,4 hPa 0,0 l/m 0 min 0 min 0,0 UV-I 0 W/m 0,0 km/h (0 Bft)
06.02.2014 05:48 6,3 C 4,4 C 88 % 1001,5 hPa 0,0 l/m 0 min 0 min 0,0 UV-I 0 W/m 5,1 km/h (1 Bft)
06.02.2014 05:50 6,3 C 5,0 C 88 % 1001,6 hPa 0,0 l/m 0 min 0 min 0,0 UV-I 0 W/m 18,0 km/h (3 Bft)
06.02.2014 05:52 6,4 C 5,0 C 88 % 1001,5 hPa 0,0 l/m 0 min 0 min 0,0 UV-I 0 W/m 15,4 km/h (3 Bft)
06.02.2014 05:54 6,4 C 5,0 C 88 % 1001,5 hPa 0,0 l/m 0 min 0 min 0,0 UV-I 0 W/m 7,7 km/h (2 Bft)
06.02.2014 05:56 6,4 C 5,0 C 87 % 1001,4 hPa 0,0 l/m 0 min 0 min 0,0 UV-I 0 W/m 5,1 km/h (1 Bft)
06.02.2014 05:58 6,5 C 5,0 C 87 % 1001,6 hPa 0,0 l/m 0 min 0 min 0,0 UV-I 0 W/m 5,1 km/h (1 Bft)
06.02.2014 06:00 6,6 C 5,0 C 87 % 1001,6 hPa 0,0 l/m 0 min 0 min 0,0 UV-I 0 W/m 7,7 km/h (2 Bft)
06.02.2014 06:02 6,6 C 5,0 C 86 % 1001,6 hPa 0,0 l/m 0 min 0 min 0,0 UV-I 0 W/m 15,4 km/h (3 Bft)
06.02.2014 06:04 6,6 C 5,0 C 86 % 1001,6 hPa 0,0 l/m 0 min 0 min 0,0 UV-I 0 W/m 20,6 km/h (4 Bft)
06.02.2014 06:06 6,7 C 5,0 C 86 % 1001,6 hPa 0,0 l/m 0 min 0 min 0,0 UV-I 0 W/m 10,3 km/h (2 Bft)
06.02.2014 06:08 6,7 C 5,6 C 85 % 1001,6 hPa 0,0 l/m 0 min 0 min 0,0 UV-I 0 W/m 15,4 km/h (3 Bft)
06.02.2014 06:10 6,8 C 5,6 C 85 % 1001,6 hPa 0,0 l/m 0 min 0 min 0,0 UV-I 0 W/m 18,0 km/h (3 Bft)
06.02.2014 06:12 6,8 C 5,6 C 84 % 1001,6 hPa 0,0 l/m 0 min 0 min 0,0 UV-I 0 W/m 12,9 km/h (3 Bft)
06.02.2014 06:14 6,9 C 5,6 C 84 % 1001,6 hPa 0,0 l/m 0 min 0 min 0,0 UV-I 0 W/m 18,0 km/h (3 Bft)
06.02.2014 06:16 6,9 C 5,6 C 84 % 1001,6 hPa 0,0 l/m 0 min 0 min 0,0 UV-I 0 W/m 18,0 km/h (3 Bft)
06.02.2014 06:18 7,0 C 5,6 C 83 % 1001,6 hPa 0,0 l/m 0 min 0 min 0,0 UV-I 0 W/m 12,9 km/h (3 Bft)
06.02.2014 06:20 7,0 C 5,6 C 83 % 1001,6 hPa 0,0 l/m 0 min 0 min 0,0 UV-I 0 W/m 10,3 km/h (2 Bft)
06.02.2014 06:22 7,0 C 5,6 C 83 % 1001,6 hPa 0,0 l/m 0 min 0 min 0,0 UV-I 0 W/m 10,3 km/h (2 Bft)
06.02.2014 06:24 7,0 C 5,6 C 83 % 1001,6 hPa 0,0 l/m 0 min 0 min 0,0 UV-I 0 W/m 18,0 km/h (3 Bft)
06.02.2014 06:26 7,1 C 5,6 C 82 % 1001,6 hPa 0,0 l/m 0 min 0 min 0,0 UV-I 0 W/m 15,4 km/h (3 Bft)
06.02.2014 06:28 7,1 C 5,6 C 82 % 1001,8 hPa 0,0 l/m 0 min 0 min 0,0 UV-I 0 W/m 20,6 km/h (4 Bft)
06.02.2014 06:30 7,1 C 5,6 C 82 % 1001,6 hPa 0,0 l/m 0 min 0 min 0,0 UV-I 0 W/m 10,3 km/h (2 Bft)
06.02.2014 06:32 7,1 C 5,6 C 81 % 1001,8 hPa 0,0 l/m 0 min 0 min 0,0 UV-I 0 W/m 23,2 km/h (4 Bft)
06.02.2014 06:34 7,2 C 5,6 C 81 % 1001,7 hPa 0,0 l/m 0 min 0 min 0,0 UV-I 0 W/m 25,7 km/h (4 Bft)
06.02.2014 06:36 7,2 C 5,6 C 81 % 1001,7 hPa 0,0 l/m 0 min 0 min 0,0 UV-I 0 W/m 18,0 km/h (3 Bft)
06.02.2014 06:38 7,2 C 5,6 C 80 % 1001,7 hPa 0,0 l/m 0 min 0 min 0,0 UV-I 0 W/m 7,7 km/h (2 Bft)
06.02.2014 06:40 7,2 C 5,0 C 80 % 1001,7 hPa 0,0 l/m 0 min 0 min 0,0 UV-I 0 W/m 12,9 km/h (3 Bft)
06.02.2014 06:42 7,2 C 5,0 C 80 % 1001,8 hPa 0,0 l/m 0 min 0 min 0,0 UV-I 0 W/m 12,9 km/h (3 Bft)
06.02.2014 06:44 7,2 C 5,0 C 80 % 1001,7 hPa 0,0 l/m 0 min 0 min 0,0 UV-I 0 W/m 15,4 km/h (3 Bft)
06.02.2014 06:46 7,1 C 5,0 C 80 % 1001,8 hPa 0,0 l/m 0 min 0 min 0,0 UV-I 0 W/m 12,9 km/h (3 Bft)
06.02.2014 06:48 7,1 C 5,0 C 80 % 1001,8 hPa 0,0 l/m 0 min 0 min 0,0 UV-I 0 W/m 15,4 km/h (3 Bft)
06.02.2014 06:50 7,0 C 5,0 C 80 % 1001,8 hPa 0,0 l/m 0 min 0 min 0,0 UV-I 0 W/m 5,1 km/h (1 Bft)
06.02.2014 06:52 7,0 C 5,0 C 81 % 1001,8 hPa 0,0 l/m 0 min 0 min 0,0 UV-I 0 W/m 18,0 km/h (3 Bft)
06.02.2014 06:54 7,0 C 5,0 C 81 % 1001,8 hPa 0,0 l/m 0 min 0 min 0,0 UV-I 0 W/m 10,3 km/h (2 Bft)
06.02.2014 06:56 6,9 C 5,0 C 81 % 1001,9 hPa 0,0 l/m 0 min 0 min 0,0 UV-I 0 W/m 7,7 km/h (2 Bft)
06.02.2014 06:58 6,9 C 5,0 C 80 % 1001,9 hPa 0,0 l/m 0 min 0 min 0,0 UV-I 0 W/m 10,3 km/h (2 Bft)
06.02.2014 07:00 6,9 C 5,0 C 81 % 1002,0 hPa 0,0 l/m 0 min 0 min 0,0 UV-I 0 W/m 25,7 km/h (4 Bft)
06.02.2014 07:02 6,9 C 5,0 C 81 % 1002,0 hPa 0,0 l/m 0 min 0 min 0,0 UV-I 0 W/m 23,2 km/h (4 Bft)
06.02.2014 07:04 6,8 C 5,0 C 81 % 1001,9 hPa 0,0 l/m 0 min 0 min 0,0 UV-I 0 W/m 18,0 km/h (3 Bft)
06.02.2014 07:06 6,8 C 5,0 C 81 % 1002,0 hPa 0,0 l/m 0 min 0 min 0,0 UV-I 0 W/m 15,4 km/h (3 Bft)
06.02.2014 07:08 6,9 C 5,0 C 81 % 1002,0 hPa 0,0 l/m 0 min 0 min 0,0 UV-I 0 W/m 10,3 km/h (2 Bft)
06.02.2014 07:10 6,9 C 5,0 C 81 % 1002,0 hPa 0,0 l/m 0 min 0 min 0,0 UV-I 0 W/m 10,3 km/h (2 Bft)
06.02.2014 07:12 6,8 C 5,0 C 81 % 1002,0 hPa 0,0 l/m 0 min 0 min 0,0 UV-I 0 W/m 7,7 km/h (2 Bft)
06.02.2014 07:14 6,8 C 5,0 C 81 % 1002,0 hPa 0,0 l/m 0 min 0 min 0,0 UV-I 0 W/m 2,6 km/h (1 Bft)
06.02.2014 07:16 6,8 C 5,0 C 81 % 1002,0 hPa 0,0 l/m 0 min 0 min 0,0 UV-I 0 W/m 10,3 km/h (2 Bft)
06.02.2014 07:18 6,8 C 5,0 C 81 % 1002,1 hPa 0,0 l/m 0 min 0 min 0,0 UV-I 0 W/m 5,1 km/h (1 Bft)
06.02.2014 07:20 6,8 C 5,0 C 81 % 1002,1 hPa 0,0 l/m 0 min 0 min 0,0 UV-I 0 W/m 12,9 km/h (3 Bft)
06.02.2014 07:22 6,7 C 5,0 C 81 % 1002,1 hPa 0,0 l/m 0 min 0 min 0,0 UV-I 0 W/m 7,7 km/h (2 Bft)
06.02.2014 07:24 6,7 C 5,0 C 81 % 1002,1 hPa 0,0 l/m 0 min 0 min 0,0 UV-I 0 W/m 12,9 km/h (3 Bft)
06.02.2014 07:26 6,7 C 5,0 C 81 % 1002,1 hPa 0,0 l/m 0 min 0 min 0,0 UV-I 0 W/m 5,1 km/h (1 Bft)
06.02.2014 07:28 6,7 C 5,0 C 81 % 1002,1 hPa 0,0 l/m 0 min 0 min 0,0 UV-I 0 W/m 7,7 km/h (2 Bft)
06.02.2014 07:30 6,7 C 5,0 C 81 % 1002,2 hPa 0,0 l/m 0 min 0 min 0,0 UV-I 0 W/m 15,4 km/h (3 Bft)
06.02.2014 07:32 6,7 C 5,0 C 81 % 1002,2 hPa 0,0 l/m 0 min 0 min 0,0 UV-I 0 W/m 12,9 km/h (3 Bft)
06.02.2014 07:34 6,7 C 5,0 C 81 % 1002,2 hPa 0,0 l/m 0 min 0 min 0,0 UV-I 0 W/m 0,0 km/h (0 Bft)
06.02.2014 07:36 6,7 C 5,0 C 82 % 1002,3 hPa 0,0 l/m 0 min 0 min 0,0 UV-I 0 W/m 7,7 km/h (2 Bft)
06.02.2014 07:38 6,7 C 5,0 C 81 % 1002,3 hPa 0,0 l/m 0 min 0 min 0,0 UV-I 0 W/m 12,9 km/h (3 Bft)
06.02.2014 07:40 6,7 C 5,0 C 82 % 1002,3 hPa 0,0 l/m 0 min 0 min 0,0 UV-I 0 W/m 7,7 km/h (2 Bft)
06.02.2014 07:42 6,7 C 5,0 C 82 % 1002,3 hPa 0,0 l/m 0 min 0 min 0,0 UV-I 0 W/m 10,3 km/h (2 Bft)
06.02.2014 07:44 6,7 C 5,0 C 82 % 1002,3 hPa 0,0 l/m 0 min 0 min 0,0 UV-I 0 W/m 10,3 km/h (2 Bft)
06.02.2014 07:46 6,7 C 5,0 C 82 % 1002,3 hPa 0,0 l/m 0 min 0 min 0,0 UV-I 0 W/m 2,6 km/h (1 Bft)
06.02.2014 07:48 6,7 C 5,0 C 82 % 1002,3 hPa 0,0 l/m 0 min 0 min 0,0 UV-I 0 W/m 10,3 km/h (2 Bft)
06.02.2014 07:50 6,7 C 5,0 C 82 % 1002,4 hPa 0,0 l/m 0 min 0 min 0,0 UV-I 0 W/m 5,1 km/h (1 Bft)
06.02.2014 07:52 6,7 C 5,0 C 82 % 1002,4 hPa 0,0 l/m 0 min 0 min 0,0 UV-I 0 W/m 5,1 km/h (1 Bft)
06.02.2014 07:54 6,6 C 4,4 C 82 % 1002,4 hPa 0,0 l/m 0 min 0 min 0,0 UV-I 0 W/m 7,7 km/h (2 Bft)
06.02.2014 07:56 6,6 C 4,4 C 82 % 1002,5 hPa 0,0 l/m 0 min 0 min 0,0 UV-I 0 W/m 7,7 km/h (2 Bft)
06.02.2014 07:58 6,5 C 4,4 C 82 % 1002,5 hPa 0,0 l/m 0 min 0 min 0,0 UV-I 0 W/m 5,1 km/h (1 Bft)
06.02.2014 08:00 6,4 C 4,4 C 82 % 1002,5 hPa 0,0 l/m 0 min 0 min 0,0 UV-I 0 W/m 2,6 km/h (1 Bft)
06.02.2014 08:02 6,4 C 4,4 C 82 % 1002,5 hPa 0,0 l/m 0 min 0 min 0,0 UV-I 5 W/m 10,3 km/h (2 Bft)
06.02.2014 08:04 6,4 C 4,4 C 82 % 1002,5 hPa 0,0 l/m 0 min 0 min 0,0 UV-I 5 W/m 7,7 km/h (2 Bft)
06.02.2014 08:06 6,4 C 4,4 C 83 % 1002,5 hPa 0,0 l/m 0 min 0 min 0,0 UV-I 5 W/m 0,0 km/h (0 Bft)
06.02.2014 08:08 6,3 C 4,4 C 83 % 1002,4 hPa 0,0 l/m 0 min 0 min 0,0 UV-I 7 W/m 12,9 km/h (3 Bft)
06.02.2014 08:10 6,3 C 4,4 C 83 % 1002,4 hPa 0,0 l/m 0 min 0 min 0,0 UV-I 7 W/m 7,7 km/h (2 Bft)
06.02.2014 08:12 6,2 C 3,9 C 83 % 1002,5 hPa 0,0 l/m 0 min 0 min 0,0 UV-I 7 W/m 2,6 km/h (1 Bft)
06.02.2014 08:14 6,2 C 3,9 C 83 % 1002,6 hPa 0,0 l/m 0 min 0 min 0,0 UV-I 9 W/m 5,1 km/h (1 Bft)
06.02.2014 08:16 6,1 C 3,9 C 84 % 1002,6 hPa 0,0 l/m 0 min 0 min 0,0 UV-I 9 W/m 0,0 km/h (0 Bft)
06.02.2014 08:18 6,1 C 3,9 C 84 % 1002,6 hPa 0,0 l/m 0 min 0 min 0,0 UV-I 9 W/m 0,0 km/h (0 Bft)
06.02.2014 08:20 6,1 C 3,9 C 84 % 1002,6 hPa 0,0 l/m 0 min 0 min 0,0 UV-I 12 W/m 5,1 km/h (1 Bft)
06.02.2014 08:22 6,1 C 3,9 C 84 % 1002,5 hPa 0,0 l/m 0 min 0 min 0,0 UV-I 14 W/m 7,7 km/h (2 Bft)
06.02.2014 08:24 6,1 C 3,9 C 84 % 1002,5 hPa 0,0 l/m 0 min 0 min 0,0 UV-I 12 W/m 0,0 km/h (0 Bft)
06.02.2014 08:26 6,1 C 3,9 C 84 % 1002,6 hPa 0,0 l/m 0 min 0 min 0,0 UV-I 14 W/m 7,7 km/h (2 Bft)
06.02.2014 08:28 6,1 C 3,9 C 84 % 1002,6 hPa 0,0 l/m 0 min 0 min 0,0 UV-I 14 W/m 7,7 km/h (2 Bft)
06.02.2014 08:30 6,1 C 3,9 C 84 % 1002,6 hPa 0,0 l/m 0 min 0 min 0,0 UV-I 16 W/m 15,4 km/h (3 Bft)
06.02.2014 08:32 6,1 C 3,9 C 84 % 1002,8 hPa 0,0 l/m 0 min 0 min 0,0 UV-I 16 W/m 15,4 km/h (3 Bft)
06.02.2014 08:34 6,1 C 3,9 C 84 % 1002,8 hPa 0,0 l/m 0 min 0 min 0,0 UV-I 18 W/m 10,3 km/h (2 Bft)
06.02.2014 08:36 6,1 C 3,9 C 84 % 1002,8 hPa 0,0 l/m 0 min 0 min 0,0 UV-I 19 W/m 10,3 km/h (2 Bft)
06.02.2014 08:38 6,1 C 3,9 C 84 % 1002,8 hPa 0,0 l/m 0 min 0 min 0,0 UV-I 21 W/m 7,7 km/h (2 Bft)
06.02.2014 08:40 6,1 C 4,4 C 84 % 1002,7 hPa 0,0 l/m 0 min 0 min 0,0 UV-I 23 W/m 10,3 km/h (2 Bft)
06.02.2014 08:42 6,1 C 3,9 C 84 % 1002,8 hPa 0,0 l/m 0 min 0 min 0,0 UV-I 26 W/m 7,7 km/h (2 Bft)
06.02.2014 08:44 6,1 C 4,4 C 84 % 1002,8 hPa 0,0 l/m 0 min 0 min 0,0 UV-I 28 W/m 7,7 km/h (2 Bft)
06.02.2014 08:46 6,1 C 3,9 C 84 % 1002,9 hPa 0,0 l/m 0 min 0 min 0,0 UV-I 32 W/m 7,7 km/h (2 Bft)
06.02.2014 08:48 6,1 C 4,4 C 84 % 1002,9 hPa 0,0 l/m 0 min 0 min 0,0 UV-I 35 W/m 12,9 km/h (3 Bft)
06.02.2014 08:50 6,1 C 4,4 C 84 % 1002,9 hPa 0,0 l/m 0 min 0 min 0,0 UV-I 39 W/m 10,3 km/h (2 Bft)
06.02.2014 08:52 6,1 C 4,4 C 84 % 1003,0 hPa 0,0 l/m 0 min 0 min 0,0 UV-I 39 W/m 7,7 km/h (2 Bft)
06.02.2014 08:54 6,2 C 4,4 C 84 % 1003,0 hPa 0,0 l/m 0 min 0 min 0,0 UV-I 35 W/m 12,9 km/h (3 Bft)
06.02.2014 08:56 6,2 C 4,4 C 84 % 1003,1 hPa 0,0 l/m 0 min 0 min 0,0 UV-I 37 W/m 10,3 km/h (2 Bft)
06.02.2014 08:58 6,2 C 4,4 C 84 % 1003,3 hPa 0,0 l/m 0 min 0 min 0,0 UV-I 39 W/m 0,0 km/h (0 Bft)
06.02.2014 09:00 6,2 C 4,4 C 84 % 1003,1 hPa 0,0 l/m 0 min 0 min 0,0 UV-I 42 W/m 12,9 km/h (3 Bft)
06.02.2014 09:02 6,3 C 4,4 C 83 % 1003,0 hPa 0,0 l/m 0 min 0 min 0,0 UV-I 42 W/m 10,3 km/h (2 Bft)
06.02.2014 09:04 6,3 C 4,4 C 83 % 1003,0 hPa 0,0 l/m 0 min 0 min 0,0 UV-I 42 W/m 12,9 km/h (3 Bft)
06.02.2014 09:06 6,4 C 4,4 C 83 % 1003,3 hPa 0,0 l/m 0 min 0 min 0,0 UV-I 42 W/m 15,4 km/h (3 Bft)
06.02.2014 09:08 6,4 C 5,0 C 83 % 1003,3 hPa 0,0 l/m 0 min 0 min 0,0 UV-I 44 W/m 12,9 km/h (3 Bft)
06.02.2014 09:10 6,4 C 5,0 C 83 % 1003,3 hPa 0,0 l/m 0 min 0 min 0,0 UV-I 46 W/m 7,7 km/h (2 Bft)
06.02.2014 09:12 6,4 C 5,0 C 83 % 1003,3 hPa 0,0 l/m 0 min 0 min 0,0 UV-I 47 W/m 2,6 km/h (1 Bft)
06.02.2014 09:14 6,4 C 5,0 C 83 % 1003,4 hPa 0,0 l/m 0 min 0 min 0,0 UV-I 47 W/m 12,9 km/h (3 Bft)
06.02.2014 09:16 6,4 C 5,0 C 83 % 1003,4 hPa 0,0 l/m 0 min 0 min 0,0 UV-I 49 W/m 7,7 km/h (2 Bft)
06.02.2014 09:18 6,5 C 5,0 C 83 % 1003,5 hPa 0,0 l/m 0 min 0 min 0,0 UV-I 58 W/m 5,1 km/h (1 Bft)
06.02.2014 09:20 6,6 C 5,0 C 83 % 1003,4 hPa 0,0 l/m 0 min 0 min 0,0 UV-I 74 W/m 12,9 km/h (3 Bft)
06.02.2014 09:22 6,6 C 5,0 C 83 % 1003,4 hPa 0,0 l/m 2 min 0 min 0,0 UV-I 98 W/m 7,7 km/h (2 Bft)
06.02.2014 09:24 6,7 C 5,0 C 82 % 1003,4 hPa 0,0 l/m 2 min 0 min 0,0 UV-I 107 W/m 12,9 km/h (3 Bft)
06.02.2014 09:26 6,7 C 5,0 C 82 % 1003,3 hPa 0,0 l/m 2 min 0 min 0,0 UV-I 113 W/m 15,4 km/h (3 Bft)
06.02.2014 09:28 6,8 C 5,0 C 82 % 1003,3 hPa 0,0 l/m 2 min 0 min 0,0 UV-I 120 W/m 10,3 km/h (2 Bft)
06.02.2014 09:30 6,8 C 5,6 C 82 % 1003,3 hPa 0,0 l/m 2 min 0 min 0,0 UV-I 118 W/m 15,4 km/h (3 Bft)
06.02.2014 09:32 6,9 C 5,6 C 82 % 1003,4 hPa 0,0 l/m 2 min 0 min 0,0 UV-I 107 W/m 15,4 km/h (3 Bft)
06.02.2014 09:34 6,9 C 5,6 C 82 % 1003,4 hPa 0,0 l/m 0 min 0 min 0,0 UV-I 104 W/m 10,3 km/h (2 Bft)
06.02.2014 09:36 7,0 C 5,6 C 81 % 1003,4 hPa 0,0 l/m 0 min 0 min 0,0 UV-I 104 W/m 18,0 km/h (3 Bft)
06.02.2014 09:38 7,0 C 5,6 C 81 % 1003,4 hPa 0,0 l/m 0 min 0 min 0,0 UV-I 105 W/m 12,9 km/h (3 Bft)
06.02.2014 09:40 7,1 C 5,6 C 81 % 1003,5 hPa 0,0 l/m 0 min 0 min 0,0 UV-I 104 W/m 15,4 km/h (3 Bft)
06.02.2014 09:42 7,1 C 5,6 C 81 % 1003,5 hPa 0,0 l/m 0 min 0 min 0,0 UV-I 104 W/m 5,1 km/h (1 Bft)
06.02.2014 09:44 7,1 C 5,6 C 81 % 1003,6 hPa 0,0 l/m 0 min 0 min 0,0 UV-I 113 W/m 12,9 km/h (3 Bft)
06.02.2014 09:46 7,2 C 5,6 C 81 % 1003,6 hPa 0,0 l/m 2 min 0 min 0,0 UV-I 121 W/m 10,3 km/h (2 Bft)
06.02.2014 09:48 7,2 C 5,6 C 81 % 1003,6 hPa 0,0 l/m 2 min 0 min 0,0 UV-I 134 W/m 5,1 km/h (1 Bft)
06.02.2014 09:50 7,2 C 5,6 C 81 % 1003,6 hPa 0,0 l/m 2 min 0 min 0,0 UV-I 135 W/m 10,3 km/h (2 Bft)
06.02.2014 09:52 7,3 C 5,6 C 80 % 1003,7 hPa 0,0 l/m 2 min 0 min 0,0 UV-I 134 W/m 12,9 km/h (3 Bft)
06.02.2014 09:54 7,3 C 6,1 C 80 % 1003,7 hPa 0,0 l/m 2 min 0 min 0,0 UV-I 144 W/m 12,9 km/h (3 Bft)
06.02.2014 09:56 7,4 C 6,1 C 80 % 1003,6 hPa 0,0 l/m 2 min 0 min 0,0 UV-I 146 W/m 20,6 km/h (4 Bft)
06.02.2014 09:58 7,4 C 6,1 C 80 % 1003,7 hPa 0,0 l/m 2 min 0 min 0,0 UV-I 153 W/m 18,0 km/h (3 Bft)
06.02.2014 10:00 7,5 C 6,1 C 79 % 1003,8 hPa 0,0 l/m 2 min 0 min 0,0 UV-I 151 W/m 15,4 km/h (3 Bft)
06.02.2014 10:02 7,6 C 6,1 C 79 % 1003,8 hPa 0,0 l/m 2 min 0 min 0,0 UV-I 165 W/m 18,0 km/h (3 Bft)
06.02.2014 10:04 7,7 C 6,7 C 79 % 1003,8 hPa 0,0 l/m 2 min 0 min 0,0 UV-I 179 W/m 12,9 km/h (3 Bft)
06.02.2014 10:06 7,7 C 6,7 C 79 % 1003,8 hPa 0,0 l/m 2 min 0 min 0,0 UV-I 171 W/m 10,3 km/h (2 Bft)
06.02.2014 10:08 7,8 C 6,7 C 79 % 1003,9 hPa 0,0 l/m 2 min 0 min 0,0 UV-I 183 W/m 15,4 km/h (3 Bft)
06.02.2014 10:10 7,8 C 6,7 C 78 % 1003,8 hPa 0,0 l/m 2 min 0 min 0,0 UV-I 171 W/m 20,6 km/h (4 Bft)
06.02.2014 10:12 7,9 C 6,7 C 78 % 1003,8 hPa 0,0 l/m 2 min 0 min 0,0 UV-I 149 W/m 20,6 km/h (4 Bft)
06.02.2014 10:14 7,9 C 6,7 C 78 % 1003,9 hPa 0,0 l/m 2 min 0 min 0,0 UV-I 202 W/m 20,6 km/h (4 Bft)
06.02.2014 10:16 8,0 C 6,7 C 78 % 1003,8 hPa 0,0 l/m 2 min 0 min 0,0 UV-I 207 W/m 18,0 km/h (3 Bft)
06.02.2014 10:18 8,1 C 7,2 C 78 % 1003,8 hPa 0,0 l/m 2 min 0 min 0,0 UV-I 199 W/m 10,3 km/h (2 Bft)
06.02.2014 10:20 8,1 C 7,2 C 77 % 1003,8 hPa 0,0 l/m 2 min 0 min 0,0 UV-I 165 W/m 10,3 km/h (2 Bft)
06.02.2014 10:22 8,2 C 7,2 C 77 % 1003,9 hPa 0,0 l/m 2 min 0 min 0,0 UV-I 200 W/m 12,9 km/h (3 Bft)
06.02.2014 10:24 8,2 C 7,2 C 77 % 1003,8 hPa 0,0 l/m 2 min 0 min 0,0 UV-I 174 W/m 18,0 km/h (3 Bft)
06.02.2014 10:26 8,2 C 7,2 C 77 % 1003,8 hPa 0,0 l/m 2 min 0 min 0,0 UV-I 199 W/m 15,4 km/h (3 Bft)
06.02.2014 10:28 8,2 C 7,2 C 77 % 1003,7 hPa 0,0 l/m 2 min 0 min 0,0 UV-I 192 W/m 7,7 km/h (2 Bft)
06.02.2014 10:30 8,2 C 7,2 C 77 % 1003,6 hPa 0,0 l/m 0 min 0 min 0,0 UV-I 144 W/m 15,4 km/h (3 Bft)
06.02.2014 10:32 8,2 C 7,2 C 76 % 1003,6 hPa 0,0 l/m 0 min 0 min 0,0 UV-I 123 W/m 10,3 km/h (2 Bft)
06.02.2014 10:34 8,2 C 6,7 C 76 % 1003,6 hPa 0,0 l/m 2 min 0 min 0,0 UV-I 220 W/m 12,9 km/h (3 Bft)
06.02.2014 10:36 8,3 C 6,7 C 77 % 1003,6 hPa 0,0 l/m 2 min 0 min 0,0 UV-I 200 W/m 18,0 km/h (3 Bft)
06.02.2014 10:38 8,4 C 7,2 C 77 % 1003,6 hPa 0,0 l/m 0 min 0 min 0,0 UV-I 149 W/m 20,6 km/h (4 Bft)
06.02.2014 10:40 8,4 C 7,2 C 76 % 1003,6 hPa 0,0 l/m 0 min 0 min 0,0 UV-I 137 W/m 30,9 km/h (5 Bft)
06.02.2014 10:42 8,4 C 7,2 C 76 % 1003,7 hPa 0,0 l/m 0 min 0 min 0,0 UV-I 156 W/m 10,3 km/h (2 Bft)
06.02.2014 10:44 8,4 C 7,2 C 75 % 1003,9 hPa 0,0 l/m 2 min 0 min 0,0 UV-I 234 W/m 25,7 km/h (4 Bft)
06.02.2014 10:46 8,5 C 7,2 C 75 % 1003,7 hPa 0,0 l/m 2 min 0 min 0,0 UV-I 239 W/m 28,3 km/h (4 Bft)
06.02.2014 10:48 8,6 C 7,2 C 75 % 1003,7 hPa 0,0 l/m 2 min 0 min 0,0 UV-I 243 W/m 12,9 km/h (3 Bft)
06.02.2014 10:50 8,7 C 7,2 C 75 % 1003,7 hPa 0,0 l/m 2 min 0 min 0,0 UV-I 250 W/m 18,0 km/h (3 Bft)
06.02.2014 10:52 8,7 C 7,2 C 75 % 1003,7 hPa 0,0 l/m 0 min 0 min 0,0 UV-I 120 W/m 20,6 km/h (4 Bft)
06.02.2014 10:54 8,7 C 7,2 C 75 % 1003,7 hPa 0,0 l/m 0 min 0 min 0,0 UV-I 142 W/m 12,9 km/h (3 Bft)
06.02.2014 10:56 8,7 C 7,2 C 75 % 1003,7 hPa 0,0 l/m 0 min 0 min 0,0 UV-I 151 W/m 18,0 km/h (3 Bft)
06.02.2014 10:58 8,7 C 7,2 C 75 % 1003,7 hPa 0,0 l/m 0 min 0 min 0,0 UV-I 153 W/m 23,2 km/h (4 Bft)
06.02.2014 11:00 8,7 C 7,2 C 75 % 1003,7 hPa 0,0 l/m 2 min 0 min 0,0 UV-I 211 W/m 23,2 km/h (4 Bft)
06.02.2014 11:02 8,7 C 7,2 C 75 % 1003,9 hPa 0,0 l/m 2 min 0 min 0,0 UV-I 295 W/m 20,6 km/h (4 Bft)
06.02.2014 11:04 8,7 C 7,2 C 75 % 1003,9 hPa 0,0 l/m 0 min 0 min 0,0 UV-I 123 W/m 30,9 km/h (5 Bft)
06.02.2014 11:06 8,8 C 7,2 C 75 % 1003,8 hPa 0,0 l/m 2 min 0 min 0,0 UV-I 316 W/m 30,9 km/h (5 Bft)
06.02.2014 11:08 8,8 C 7,8 C 75 % 1003,9 hPa 0,0 l/m 2 min 0 min 0,0 UV-I 323 W/m 41,2 km/h (6 Bft)
06.02.2014 11:10 8,9 C 7,8 C 75 % 1003,8 hPa 0,0 l/m 2 min 0 min 0,0 UV-I 322 W/m 20,6 km/h (4 Bft)
06.02.2014 11:12 9,0 C 7,8 C 75 % 1003,8 hPa 0,0 l/m 2 min 0 min 0,0 UV-I 329 W/m 10,3 km/h (2 Bft)
06.02.2014 11:14 9,1 C 7,8 C 74 % 1003,9 hPa 0,0 l/m 2 min 0 min 0,0 UV-I 339 W/m 46,3 km/h (6 Bft)
06.02.2014 11:16 9,0 C 7,8 C 74 % 1003,8 hPa 0,0 l/m 0 min 0 min 0,0 UV-I 144 W/m 23,2 km/h (4 Bft)
06.02.2014 11:18 8,9 C 7,8 C 74 % 1003,8 hPa 0,0 l/m 2 min 0 min 0,0 UV-I 294 W/m 30,9 km/h (5 Bft)
06.02.2014 11:20 8,9 C 7,8 C 74 % 1003,8 hPa 0,0 l/m 2 min 0 min 0,0 UV-I 311 W/m 25,7 km/h (4 Bft)
06.02.2014 11:22 8,9 C 7,2 C 74 % 1003,9 hPa 0,0 l/m 2 min 0 min 0,0 UV-I 332 W/m 30,9 km/h (5 Bft)
06.02.2014 11:24 8,9 C 7,8 C 74 % 1003,8 hPa 0,0 l/m 2 min 0 min 0,0 UV-I 323 W/m 23,2 km/h (4 Bft)
06.02.2014 11:26 9,0 C 7,8 C 73 % 1003,8 hPa 0,0 l/m 2 min 0 min 0,0 UV-I 288 W/m 33,5 km/h (5 Bft)
06.02.2014 11:28 9,1 C 7,8 C 73 % 1003,7 hPa 0,0 l/m 2 min 0 min 0,0 UV-I 306 W/m 30,9 km/h (5 Bft)
06.02.2014 11:30 9,2 C 7,8 C 73 % 1003,8 hPa 0,0 l/m 2 min 0 min 0,0 UV-I 309 W/m 36,0 km/h (5 Bft)
06.02.2014 11:32 9,2 C 7,8 C 73 % 1003,9 hPa 0,0 l/m 2 min 0 min 0,0 UV-I 309 W/m 41,2 km/h (6 Bft)
06.02.2014 11:34 9,2 C 7,8 C 73 % 1003,8 hPa 0,0 l/m 2 min 0 min 0,0 UV-I 315 W/m 33,5 km/h (5 Bft)
06.02.2014 11:36 9,2 C 7,8 C 73 % 1003,8 hPa 0,0 l/m 2 min 0 min 0,0 UV-I 311 W/m 25,7 km/h (4 Bft)
06.02.2014 11:38 9,3 C 7,8 C 73 % 1003,9 hPa 0,0 l/m 2 min 0 min 0,0 UV-I 323 W/m 18,0 km/h (3 Bft)
06.02.2014 11:40 9,4 C 7,8 C 73 % 1003,8 hPa 0,0 l/m 2 min 0 min 0,0 UV-I 325 W/m 15,4 km/h (3 Bft)
06.02.2014 11:42 9,4 C 7,8 C 72 % 1003,8 hPa 0,0 l/m 2 min 0 min 0,0 UV-I 330 W/m 25,7 km/h (4 Bft)
06.02.2014 11:44 9,5 C 7,8 C 73 % 1003,8 hPa 0,0 l/m 2 min 0 min 0,0 UV-I 322 W/m 15,4 km/h (3 Bft)
06.02.2014 11:46 9,6 C 7,8 C 72 % 1003,8 hPa 0,0 l/m 2 min 0 min 0,0 UV-I 327 W/m 18,0 km/h (3 Bft)
06.02.2014 11:48 9,6 C 8,3 C 72 % 1004,0 hPa 0,0 l/m 2 min 0 min 0,0 UV-I 323 W/m 15,4 km/h (3 Bft)
06.02.2014 11:50 9,6 C 8,3 C 72 % 1003,9 hPa 0,0 l/m 2 min 0 min 0,0 UV-I 334 W/m 28,3 km/h (4 Bft)
06.02.2014 11:52 9,7 C 8,3 C 72 % 1003,9 hPa 0,0 l/m 2 min 0 min 0,0 UV-I 283 W/m 23,2 km/h (4 Bft)
06.02.2014 11:54 9,7 C 8,3 C 72 % 1003,8 hPa 0,0 l/m 2 min 0 min 0,0 UV-I 283 W/m 12,9 km/h (3 Bft)
06.02.2014 11:56 9,7 C 8,3 C 72 % 1003,9 hPa 0,0 l/m 2 min 0 min 0,0 UV-I 302 W/m 20,6 km/h (4 Bft)
06.02.2014 11:58 9,7 C 8,3 C 72 % 1004,1 hPa 0,0 l/m 2 min 0 min 0,0 UV-I 278 W/m 25,7 km/h (4 Bft)
06.02.2014 12:00 9,6 C 8,3 C 72 % 1003,8 hPa 0,0 l/m 2 min 0 min 0,0 UV-I 262 W/m 20,6 km/h (4 Bft)
06.02.2014 12:02 9,6 C 8,3 C 73 % 1003,8 hPa 0,0 l/m 2 min 0 min 0,0 UV-I 283 W/m 25,7 km/h (4 Bft)
06.02.2014 12:04 9,6 C 8,3 C 72 % 1003,7 hPa 0,0 l/m 2 min 0 min 0,0 UV-I 323 W/m 25,7 km/h (4 Bft)
06.02.2014 12:06 9,6 C 8,3 C 72 % 1003,8 hPa 0,0 l/m 2 min 0 min 0,0 UV-I 327 W/m 25,7 km/h (4 Bft)
06.02.2014 12:08 9,7 C 8,3 C 72 % 1003,8 hPa 0,0 l/m 2 min 0 min 0,0 UV-I 378 W/m 38,6 km/h (5 Bft)
06.02.2014 12:10 9,7 C 8,3 C 72 % 1003,8 hPa 0,0 l/m 2 min 0 min 0,0 UV-I 369 W/m 23,2 km/h (4 Bft)
06.02.2014 12:12 9,8 C 8,3 C 72 % 1003,8 hPa 0,0 l/m 2 min 0 min 0,0 UV-I 366 W/m 20,6 km/h (4 Bft)
06.02.2014 12:14 9,9 C 8,9 C 73 % 1003,7 hPa 0,0 l/m 2 min 0 min 0,0 UV-I 290 W/m 10,3 km/h (2 Bft)
06.02.2014 12:16 10,1 C 8,9 C 72 % 1003,7 hPa 0,0 l/m 2 min 0 min 0,0 UV-I 327 W/m 10,3 km/h (2 Bft)
06.02.2014 12:18 10,2 C 8,9 C 72 % 1003,6 hPa 0,0 l/m 2 min 0 min 0,0 UV-I 334 W/m 20,6 km/h (4 Bft)
06.02.2014 12:20 10,2 C 8,9 C 72 % 1003,6 hPa 0,0 l/m 2 min 0 min 0,0 UV-I 295 W/m 20,6 km/h (4 Bft)
06.02.2014 12:22 10,2 C 8,9 C 71 % 1003,6 hPa 0,0 l/m 2 min 0 min 0,0 UV-I 281 W/m 23,2 km/h (4 Bft)
06.02.2014 12:24 10,1 C 8,9 C 71 % 1003,7 hPa 0,0 l/m 2 min 0 min 0,0 UV-I 285 W/m 25,7 km/h (4 Bft)
06.02.2014 12:26 10,1 C 8,9 C 72 % 1003,7 hPa 0,0 l/m 2 min 0 min 0,0 UV-I 316 W/m 18,0 km/h (3 Bft)
06.02.2014 12:28 10,1 C 8,9 C 72 % 1003,7 hPa 0,0 l/m 2 min 0 min 0,0 UV-I 306 W/m 15,4 km/h (3 Bft)
06.02.2014 12:30 10,1 C 8,9 C 71 % 1003,7 hPa 0,0 l/m 2 min 0 min 0,0 UV-I 323 W/m 23,2 km/h (4 Bft)
06.02.2014 12:32 10,1 C 8,9 C 71 % 1003,7 hPa 0,0 l/m 2 min 0 min 0,0 UV-I 366 W/m 28,3 km/h (4 Bft)
06.02.2014 12:34 10,2 C 8,9 C 71 % 1003,8 hPa 0,0 l/m 2 min 0 min 0,0 UV-I 376 W/m 25,7 km/h (4 Bft)
06.02.2014 12:36 10,2 C 9,4 C 71 % 1003,8 hPa 0,0 l/m 2 min 0 min 0,0 UV-I 396 W/m 23,2 km/h (4 Bft)
06.02.2014 12:38 10,2 C 9,4 C 71 % 1003,7 hPa 0,0 l/m 2 min 0 min 0,0 UV-I 367 W/m 18,0 km/h (3 Bft)
06.02.2014 12:40 10,4 C 9,4 C 70 % 1003,7 hPa 0,0 l/m 2 min 0 min 0,0 UV-I 388 W/m 18,0 km/h (3 Bft)
06.02.2014 12:42 10,4 C 9,4 C 70 % 1003,8 hPa 0,0 l/m 2 min 0 min 0,0 UV-I 396 W/m 30,9 km/h (5 Bft)
06.02.2014 12:44 10,4 C 9,4 C 70 % 1003,8 hPa 0,0 l/m 2 min 0 min 0,0 UV-I 246 W/m 30,9 km/h (5 Bft)
06.02.2014 12:46 10,3 C 8,9 C 70 % 1003,8 hPa 0,0 l/m 0 min 0 min 0,0 UV-I 193 W/m 25,7 km/h (4 Bft)
06.02.2014 12:48 10,2 C 8,9 C 70 % 1003,8 hPa 0,0 l/m 0 min 0 min 0,0 UV-I 113 W/m 36,0 km/h (5 Bft)
06.02.2014 12:50 10,1 C 8,9 C 70 % 1003,7 hPa 0,0 l/m 0 min 0 min 0,0 UV-I 142 W/m 25,7 km/h (4 Bft)
06.02.2014 12:52 9,9 C 8,9 C 71 % 1003,7 hPa 0,0 l/m 0 min 0 min 0,0 UV-I 181 W/m 20,6 km/h (4 Bft)
06.02.2014 12:54 9,9 C 8,9 C 71 % 1003,8 hPa 0,0 l/m 0 min 0 min 0,0 UV-I 193 W/m 25,7 km/h (4 Bft)
06.02.2014 12:56 9,9 C 8,9 C 71 % 1003,7 hPa 0,0 l/m 0 min 0 min 0,0 UV-I 156 W/m 18,0 km/h (3 Bft)
06.02.2014 12:58 10,0 C 8,9 C 71 % 1003,7 hPa 0,0 l/m 2 min 0 min 0,0 UV-I 255 W/m 15,4 km/h (3 Bft)
06.02.2014 13:00 10,1 C 9,4 C 71 % 1003,8 hPa 0,0 l/m 2 min 0 min 0,0 UV-I 276 W/m 18,0 km/h (3 Bft)
06.02.2014 13:02 10,3 C 9,4 C 71 % 1003,6 hPa 0,0 l/m 0 min 0 min 0,0 UV-I 206 W/m 10,3 km/h (2 Bft)
06.02.2014 13:04 10,4 C 9,4 C 70 % 1003,6 hPa 0,0 l/m 0 min 0 min 0,0 UV-I 162 W/m 18,0 km/h (3 Bft)
06.02.2014 13:06 10,3 C 9,4 C 69 % 1003,6 hPa 0,0 l/m 0 min 0 min 0,0 UV-I 135 W/m 18,0 km/h (3 Bft)
06.02.2014 13:08 10,3 C 9,4 C 69 % 1003,7 hPa 0,0 l/m 0 min 0 min 0,0 UV-I 151 W/m 18,0 km/h (3 Bft)
06.02.2014 13:10 10,3 C 9,4 C 70 % 1003,5 hPa 0,0 l/m 0 min 0 min 0,0 UV-I 211 W/m 10,3 km/h (2 Bft)
06.02.2014 13:12 10,3 C 9,4 C 70 % 1003,6 hPa 0,0 l/m 0 min 0 min 0,0 UV-I 142 W/m 25,7 km/h (4 Bft)
06.02.2014 13:14 10,3 C 9,4 C 69 % 1003,5 hPa 0,0 l/m 0 min 0 min 0,0 UV-I 118 W/m 18,0 km/h (3 Bft)
06.02.2014 13:16 10,2 C 9,4 C 70 % 1003,6 hPa 0,0 l/m 0 min 0 min 0,0 UV-I 144 W/m 23,2 km/h (4 Bft)
06.02.2014 13:18 10,2 C 9,4 C 70 % 1003,6 hPa 0,0 l/m 0 min 0 min 0,0 UV-I 149 W/m 18,0 km/h (3 Bft)
06.02.2014 13:20 10,2 C 9,4 C 70 % 1003,4 hPa 0,0 l/m 0 min 0 min 0,0 UV-I 144 W/m 20,6 km/h (4 Bft)
06.02.2014 13:22 10,2 C 9,4 C 70 % 1003,4 hPa 0,0 l/m 0 min 0 min 0,0 UV-I 171 W/m 10,3 km/h (2 Bft)
06.02.2014 13:24 10,2 C 9,4 C 70 % 1003,4 hPa 0,0 l/m 0 min 0 min 0,0 UV-I 163 W/m 18,0 km/h (3 Bft)
06.02.2014 13:26 10,2 C 9,4 C 70 % 1003,4 hPa 0,0 l/m 0 min 0 min 0,0 UV-I 179 W/m 12,9 km/h (3 Bft)
06.02.2014 13:28 10,2 C 9,4 C 70 % 1003,3 hPa 0,0 l/m 0 min 0 min 0,0 UV-I 165 W/m 30,9 km/h (5 Bft)
06.02.2014 13:30 10,2 C 9,4 C 70 % 1003,3 hPa 0,0 l/m 0 min 0 min 0,0 UV-I 137 W/m 23,2 km/h (4 Bft)
06.02.2014 13:32 10,2 C 9,4 C 69 % 1003,3 hPa 0,0 l/m 0 min 0 min 0,0 UV-I 130 W/m 28,3 km/h (4 Bft)
06.02.2014 13:34 10,2 C 9,4 C 70 % 1003,2 hPa 0,0 l/m 0 min 0 min 0,0 UV-I 134 W/m 23,2 km/h (4 Bft)
06.02.2014 13:36 10,2 C 9,4 C 70 % 1003,3 hPa 0,0 l/m 0 min 0 min 0,0 UV-I 102 W/m 18,0 km/h (3 Bft)
06.02.2014 13:38 10,2 C 9,4 C 70 % 1003,1 hPa 0,0 l/m 0 min 0 min 0,0 UV-I 104 W/m 15,4 km/h (3 Bft)
06.02.2014 13:40 10,2 C 9,4 C 70 % 1003,2 hPa 0,0 l/m 0 min 0 min 0,0 UV-I 88 W/m 18,0 km/h (3 Bft)
06.02.2014 13:42 10,1 C 8,9 C 69 % 1003,3 hPa 0,0 l/m 0 min 0 min 0,0 UV-I 95 W/m 23,2 km/h (4 Bft)
06.02.2014 13:44 10,1 C 8,9 C 70 % 1003,2 hPa 0,0 l/m 0 min 0 min 0,0 UV-I 90 W/m 20,6 km/h (4 Bft)
06.02.2014 13:46 10,1 C 8,9 C 70 % 1003,1 hPa 0,0 l/m 0 min 0 min 0,0 UV-I 81 W/m 18,0 km/h (3 Bft)
06.02.2014 13:48 10,1 C 8,9 C 70 % 1002,9 hPa 0,0 l/m 0 min 0 min 0,0 UV-I 90 W/m 15,4 km/h (3 Bft)
06.02.2014 13:50 10,1 C 8,9 C 70 % 1003,0 hPa 0,0 l/m 0 min 0 min 0,0 UV-I 84 W/m 12,9 km/h (3 Bft)
06.02.2014 13:52 10,1 C 8,9 C 70 % 1002,9 hPa 0,0 l/m 0 min 0 min 0,0 UV-I 65 W/m 18,0 km/h (3 Bft)
06.02.2014 13:54 10,0 C 8,9 C 70 % 1002,9 hPa 0,0 l/m 0 min 0 min 0,0 UV-I 76 W/m 18,0 km/h (3 Bft)
06.02.2014 13:56 10,0 C 8,9 C 70 % 1002,8 hPa 0,0 l/m 0 min 0 min 0,0 UV-I 123 W/m 23,2 km/h (4 Bft)
06.02.2014 13:58 10,1 C 8,9 C 70 % 1002,8 hPa 0,0 l/m 0 min 0 min 0,0 UV-I 146 W/m 12,9 km/h (3 Bft)
06.02.2014 14:00 10,1 C 9,4 C 70 % 1002,8 hPa 0,0 l/m 0 min 0 min 0,0 UV-I 148 W/m 10,3 km/h (2 Bft)
06.02.2014 14:02 10,1 C 9,4 C 70 % 1002,8 hPa 0,0 l/m 0 min 0 min 0,0 UV-I 149 W/m 15,4 km/h (3 Bft)
06.02.2014 14:04 10,2 C 9,4 C 69 % 1002,7 hPa 0,0 l/m 0 min 0 min 0,0 UV-I 128 W/m 12,9 km/h (3 Bft)
06.02.2014 14:06 10,2 C 9,4 C 69 % 1002,7 hPa 0,0 l/m 0 min 0 min 0,0 UV-I 123 W/m 15,4 km/h (3 Bft)
06.02.2014 14:08 10,2 C 9,4 C 69 % 1002,7 hPa 0,0 l/m 0 min 0 min 0,0 UV-I 148 W/m 18,0 km/h (3 Bft)
06.02.2014 14:10 10,2 C 9,4 C 69 % 1002,5 hPa 0,0 l/m 0 min 0 min 0,0 UV-I 160 W/m 15,4 km/h (3 Bft)
06.02.2014 14:12 10,2 C 9,4 C 69 % 1002,5 hPa 0,0 l/m 0 min 0 min 0,0 UV-I 153 W/m 10,3 km/h (2 Bft)
06.02.2014 14:14 10,3 C 9,4 C 69 % 1002,4 hPa 0,0 l/m 0 min 0 min 0,0 UV-I 144 W/m 10,3 km/h (2 Bft)
06.02.2014 14:16 10,3 C 9,4 C 69 % 1002,3 hPa 0,0 l/m 0 min 0 min 0,0 UV-I 132 W/m 18,0 km/h (3 Bft)
06.02.2014 14:18 10,3 C 9,4 C 69 % 1002,3 hPa 0,0 l/m 0 min 0 min 0,0 UV-I 125 W/m 7,7 km/h (2 Bft)
06.02.2014 14:20 10,3 C 9,4 C 70 % 1002,2 hPa 0,0 l/m 0 min 0 min 0,0 UV-I 121 W/m 15,4 km/h (3 Bft)
06.02.2014 14:22 10,3 C 9,4 C 69 % 1002,2 hPa 0,0 l/m 0 min 0 min 0,0 UV-I 120 W/m 18,0 km/h (3 Bft)
06.02.2014 14:24 10,3 C 9,4 C 70 % 1002,3 hPa 0,0 l/m 0 min 0 min 0,0 UV-I 118 W/m 23,2 km/h (4 Bft)
06.02.2014 14:26 10,2 C 9,4 C 69 % 1002,2 hPa 0,0 l/m 0 min 0 min 0,0 UV-I 121 W/m 20,6 km/h (4 Bft)
06.02.2014 14:28 10,2 C 9,4 C 70 % 1002,1 hPa 0,0 l/m 0 min 0 min 0,0 UV-I 132 W/m 5,1 km/h (1 Bft)
06.02.2014 14:30 10,2 C 9,4 C 70 % 1002,1 hPa 0,0 l/m 0 min 0 min 0,0 UV-I 139 W/m 7,7 km/h (2 Bft)
06.02.2014 14:32 10,2 C 9,4 C 69 % 1002,1 hPa 0,0 l/m 0 min 0 min 0,0 UV-I 160 W/m 12,9 km/h (3 Bft)
06.02.2014 14:34 10,3 C 9,4 C 70 % 1002,1 hPa 0,0 l/m 2 min 0 min 0,0 UV-I 186 W/m 20,6 km/h (4 Bft)
06.02.2014 14:36 10,3 C 9,4 C 70 % 1002,0 hPa 0,0 l/m 0 min 0 min 0,0 UV-I 176 W/m 12,9 km/h (3 Bft)
06.02.2014 14:38 10,3 C 9,4 C 70 % 1001,9 hPa 0,0 l/m 0 min 0 min 0,0 UV-I 176 W/m 12,9 km/h (3 Bft)
06.02.2014 14:40 10,4 C 10,0 C 70 % 1001,9 hPa 0,0 l/m 0 min 0 min 0,0 UV-I 179 W/m 15,4 km/h (3 Bft)
06.02.2014 14:42 10,4 C 10,0 C 70 % 1001,9 hPa 0,0 l/m 2 min 0 min 0,0 UV-I 181 W/m 12,9 km/h (3 Bft)
06.02.2014 14:44 10,4 C 10,0 C 70 % 1001,8 hPa 0,0 l/m 2 min 0 min 0,0 UV-I 186 W/m 18,0 km/h (3 Bft)
06.02.2014 14:46 10,4 C 10,0 C 70 % 1001,9 hPa 0,0 l/m 2 min 0 min 0,0 UV-I 185 W/m 18,0 km/h (3 Bft)
06.02.2014 14:48 10,4 C 10,0 C 69 % 1001,9 hPa 0,0 l/m 2 min 0 min 0,0 UV-I 179 W/m 28,3 km/h (4 Bft)
06.02.2014 14:50 10,4 C 10,0 C 69 % 1001,9 hPa 0,0 l/m 0 min 0 min 0,0 UV-I 172 W/m 15,4 km/h (3 Bft)
06.02.2014 14:52 10,4 C 10,0 C 69 % 1001,8 hPa 0,0 l/m 0 min 0 min 0,0 UV-I 163 W/m 18,0 km/h (3 Bft)
06.02.2014 14:54 10,4 C 10,0 C 70 % 1001,7 hPa 0,0 l/m 0 min 0 min 0,0 UV-I 155 W/m 15,4 km/h (3 Bft)
06.02.2014 14:56 10,4 C 10,0 C 70 % 1001,7 hPa 0,0 l/m 0 min 0 min 0,0 UV-I 139 W/m 15,4 km/h (3 Bft)
06.02.2014 14:58 10,3 C 9,4 C 69 % 1001,7 hPa 0,0 l/m 0 min 0 min 0,0 UV-I 127 W/m 23,2 km/h (4 Bft)
06.02.2014 15:00 10,3 C 9,4 C 70 % 1001,6 hPa 0,0 l/m 0 min 0 min 0,0 UV-I 132 W/m 15,4 km/h (3 Bft)
06.02.2014 15:02 10,3 C 9,4 C 69 % 1001,7 hPa 0,0 l/m 0 min 0 min 0,0 UV-I 135 W/m 20,6 km/h (4 Bft)
06.02.2014 15:04 10,3 C 9,4 C 69 % 1001,6 hPa 0,0 l/m 0 min 0 min 0,0 UV-I 134 W/m 28,3 km/h (4 Bft)
06.02.2014 15:06 10,2 C 9,4 C 69 % 1001,6 hPa 0,0 l/m 0 min 0 min 0,0 UV-I 125 W/m 20,6 km/h (4 Bft)
06.02.2014 15:08 10,2 C 9,4 C 69 % 1001,5 hPa 0,0 l/m 0 min 0 min 0,0 UV-I 111 W/m 18,0 km/h (3 Bft)
06.02.2014 15:10 10,2 C 9,4 C 69 % 1001,4 hPa 0,0 l/m 0 min 0 min 0,0 UV-I 97 W/m 20,6 km/h (4 Bft)
06.02.2014 15:12 10,2 C 8,9 C 69 % 1001,5 hPa 0,0 l/m 0 min 0 min 0,0 UV-I 97 W/m 12,9 km/h (3 Bft)
06.02.2014 15:14 10,1 C 8,9 C 69 % 1001,4 hPa 0,0 l/m 0 min 0 min 0,0 UV-I 102 W/m 18,0 km/h (3 Bft)
06.02.2014 15:16 10,1 C 8,9 C 68 % 1001,4 hPa 0,0 l/m 0 min 0 min 0,0 UV-I 111 W/m 12,9 km/h (3 Bft)
06.02.2014 15:18 10,1 C 9,4 C 69 % 1001,4 hPa 0,0 l/m 0 min 0 min 0,0 UV-I 113 W/m 25,7 km/h (4 Bft)
06.02.2014 15:20 10,1 C 8,9 C 69 % 1001,4 hPa 0,0 l/m 0 min 0 min 0,0 UV-I 111 W/m 15,4 km/h (3 Bft)
06.02.2014 15:22 10,1 C 9,4 C 69 % 1001,4 hPa 0,0 l/m 0 min 0 min 0,0 UV-I 111 W/m 12,9 km/h (3 Bft)
06.02.2014 15:24 10,1 C 9,4 C 69 % 1001,4 hPa 0,0 l/m 0 min 0 min 0,0 UV-I 113 W/m 15,4 km/h (3 Bft)
06.02.2014 15:26 10,1 C 8,9 C 69 % 1001,4 hPa 0,0 l/m 0 min 0 min 0,0 UV-I 107 W/m 15,4 km/h (3 Bft)
06.02.2014 15:28 10,1 C 9,4 C 69 % 1001,3 hPa 0,0 l/m 0 min 0 min 0,0 UV-I 100 W/m 5,1 km/h (1 Bft)
06.02.2014 15:30 10,1 C 9,4 C 70 % 1001,4 hPa 0,0 l/m 0 min 0 min 0,0 UV-I 95 W/m 7,7 km/h (2 Bft)
06.02.2014 15:32 10,1 C 8,9 C 70 % 1001,2 hPa 0,0 l/m 0 min 0 min 0,0 UV-I 90 W/m 20,6 km/h (4 Bft)
06.02.2014 15:34 10,1 C 8,9 C 69 % 1001,3 hPa 0,0 l/m 0 min 0 min 0,0 UV-I 84 W/m 10,3 km/h (2 Bft)
06.02.2014 15:36 10,1 C 8,9 C 69 % 1001,0 hPa 0,0 l/m 0 min 0 min 0,0 UV-I 81 W/m 12,9 km/h (3 Bft)
06.02.2014 15:38 10,1 C 8,9 C 69 % 1001,0 hPa 0,0 l/m 0 min 0 min 0,0 UV-I 76 W/m 20,6 km/h (4 Bft)
06.02.2014 15:40 10,1 C 8,9 C 69 % 1001,0 hPa 0,0 l/m 0 min 0 min 0,0 UV-I 70 W/m 20,6 km/h (4 Bft)
06.02.2014 15:42 10,1 C 8,9 C 69 % 1001,1 hPa 0,0 l/m 0 min 0 min 0,0 UV-I 63 W/m 12,9 km/h (3 Bft)
06.02.2014 15:44 10,1 C 8,9 C 70 % 1001,0 hPa 0,0 l/m 0 min 0 min 0,0 UV-I 53 W/m 7,7 km/h (2 Bft)
06.02.2014 15:46 10,1 C 8,9 C 69 % 1000,9 hPa 0,0 l/m 0 min 0 min 0,0 UV-I 51 W/m 15,4 km/h (3 Bft)
06.02.2014 15:48 10,1 C 8,9 C 69 % 1000,9 hPa 0,0 l/m 0 min 0 min 0,0 UV-I 49 W/m 15,4 km/h (3 Bft)
06.02.2014 15:50 10,0 C 8,9 C 69 % 1000,9 hPa 0,0 l/m 0 min 0 min 0,0 UV-I 46 W/m 15,4 km/h (3 Bft)
06.02.2014 15:52 10,0 C 8,3 C 69 % 1001,0 hPa 0,0 l/m 0 min 0 min 0,0 UV-I 44 W/m 33,5 km/h (5 Bft)
06.02.2014 15:54 10,0 C 8,9 C 68 % 1000,9 hPa 0,0 l/m 0 min 0 min 0,0 UV-I 46 W/m 20,6 km/h (4 Bft)
06.02.2014 15:56 10,0 C 8,3 C 68 % 1000,7 hPa 0,0 l/m 0 min 0 min 0,0 UV-I 47 W/m 25,7 km/h (4 Bft)
06.02.2014 15:58 10,0 C 8,3 C 69 % 1000,7 hPa 0,0 l/m 0 min 0 min 0,0 UV-I 47 W/m 15,4 km/h (3 Bft)
06.02.2014 16:00 9,9 C 8,3 C 69 % 1000,7 hPa 0,0 l/m 0 min 0 min 0,0 UV-I 47 W/m 18,0 km/h (3 Bft)
06.02.2014 16:02 9,9 C 8,3 C 69 % 1000,6 hPa 0,0 l/m 0 min 0 min 0,0 UV-I 42 W/m 15,4 km/h (3 Bft)
06.02.2014 16:04 9,9 C 8,3 C 70 % 1000,6 hPa 0,0 l/m 0 min 0 min 0,0 UV-I 40 W/m 15,4 km/h (3 Bft)
06.02.2014 16:06 9,9 C 8,3 C 70 % 1000,6 hPa 0,0 l/m 0 min 0 min 0,0 UV-I 40 W/m 18,0 km/h (3 Bft)
06.02.2014 16:08 9,8 C 8,3 C 70 % 1000,5 hPa 0,0 l/m 0 min 0 min 0,0 UV-I 40 W/m 15,4 km/h (3 Bft)
06.02.2014 16:10 9,8 C 8,3 C 70 % 1000,4 hPa 0,0 l/m 0 min 0 min 0,0 UV-I 39 W/m 18,0 km/h (3 Bft)
06.02.2014 16:12 9,8 C 8,3 C 70 % 1000,4 hPa 0,0 l/m 0 min 0 min 0,0 UV-I 37 W/m 18,0 km/h (3 Bft)
06.02.2014 16:14 9,8 C 8,3 C 71 % 1000,4 hPa 0,0 l/m 0 min 0 min 0,0 UV-I 33 W/m 15,4 km/h (3 Bft)
06.02.2014 16:16 9,7 C 8,3 C 70 % 1000,3 hPa 0,0 l/m 0 min 0 min 0,0 UV-I 30 W/m 20,6 km/h (4 Bft)
06.02.2014 16:18 9,7 C 8,3 C 71 % 1000,3 hPa 0,0 l/m 0 min 0 min 0,0 UV-I 28 W/m 18,0 km/h (3 Bft)
06.02.2014 16:20 9,7 C 8,3 C 71 % 1000,2 hPa 0,0 l/m 0 min 0 min 0,0 UV-I 28 W/m 20,6 km/h (4 Bft)
06.02.2014 16:22 9,7 C 7,8 C 71 % 1000,3 hPa 0,0 l/m 0 min 0 min 0,0 UV-I 28 W/m 25,7 km/h (4 Bft)
06.02.2014 16:24 9,7 C 8,3 C 70 % 1000,3 hPa 0,0 l/m 0 min 0 min 0,0 UV-I 28 W/m 20,6 km/h (4 Bft)
06.02.2014 16:26 9,7 C 7,8 C 70 % 1000,2 hPa 0,0 l/m 0 min 0 min 0,0 UV-I 26 W/m 15,4 km/h (3 Bft)
06.02.2014 16:28 9,6 C 7,8 C 71 % 1000,2 hPa 0,0 l/m 0 min 0 min 0,0 UV-I 26 W/m 18,0 km/h (3 Bft)
06.02.2014 16:30 9,6 C 7,8 C 70 % 1000,2 hPa 0,0 l/m 0 min 0 min 0,0 UV-I 26 W/m 25,7 km/h (4 Bft)
06.02.2014 16:32 9,6 C 7,8 C 70 % 1000,1 hPa 0,0 l/m 0 min 0 min 0,0 UV-I 26 W/m 18,0 km/h (3 Bft)
06.02.2014 16:34 9,6 C 7,8 C 70 % 1000,1 hPa 0,0 l/m 0 min 0 min 0,0 UV-I 25 W/m 15,4 km/h (3 Bft)
06.02.2014 16:36 9,6 C 7,8 C 71 % 1000,0 hPa 0,0 l/m 0 min 0 min 0,0 UV-I 23 W/m 23,2 km/h (4 Bft)
06.02.2014 16:38 9,6 C 7,8 C 71 % 1000,1 hPa 0,0 l/m 0 min 0 min 0,0 UV-I 21 W/m 23,2 km/h (4 Bft)
06.02.2014 16:40 9,5 C 7,8 C 71 % 1000,0 hPa 0,0 l/m 0 min 0 min 0,0 UV-I 19 W/m 12,9 km/h (3 Bft)
06.02.2014 16:42 9,5 C 7,8 C 71 % 1000,0 hPa 0,0 l/m 0 min 0 min 0,0 UV-I 16 W/m 12,9 km/h (3 Bft)
06.02.2014 16:44 9,4 C 7,8 C 71 % 999,9 hPa 0,0 l/m 0 min 0 min 0,0 UV-I 14 W/m 18,0 km/h (3 Bft)
06.02.2014 16:46 9,4 C 7,8 C 71 % 999,9 hPa 0,0 l/m 0 min 0 min 0,0 UV-I 12 W/m 15,4 km/h (3 Bft)
06.02.2014 16:48 9,4 C 7,8 C 71 % 999,8 hPa 0,0 l/m 0 min 0 min 0,0 UV-I 12 W/m 23,2 km/h (4 Bft)
06.02.2014 16:50 9,4 C 7,8 C 71 % 999,8 hPa 0,0 l/m 0 min 0 min 0,0 UV-I 11 W/m 25,7 km/h (4 Bft)
06.02.2014 16:52 9,4 C 7,8 C 72 % 999,8 hPa 0,0 l/m 0 min 0 min 0,0 UV-I 9 W/m 28,3 km/h (4 Bft)
06.02.2014 16:54 9,4 C 7,8 C 72 % 999,7 hPa 0,0 l/m 0 min 0 min 0,0 UV-I 9 W/m 20,6 km/h (4 Bft)
06.02.2014 16:56 9,4 C 7,8 C 72 % 999,7 hPa 0,0 l/m 0 min 0 min 0,0 UV-I 7 W/m 28,3 km/h (4 Bft)
06.02.2014 16:58 9,3 C 7,8 C 72 % 999,8 hPa 0,0 l/m 0 min 0 min 0,0 UV-I 7 W/m 20,6 km/h (4 Bft)
06.02.2014 17:00 9,3 C 7,8 C 72 % 999,8 hPa 0,0 l/m 0 min 0 min 0,0 UV-I 7 W/m 18,0 km/h (3 Bft)
06.02.2014 17:02 9,3 C 7,8 C 73 % 999,8 hPa 0,0 l/m 0 min 2 min 0,0 UV-I 5 W/m 25,7 km/h (4 Bft)
06.02.2014 17:04 9,3 C 7,8 C 72 % 999,7 hPa 0,0 l/m 0 min 2 min 0,0 UV-I 5 W/m 28,3 km/h (4 Bft)
06.02.2014 17:06 9,3 C 7,2 C 73 % 999,7 hPa 0,0 l/m 0 min 0 min 0,0 UV-I 5 W/m 23,2 km/h (4 Bft)
06.02.2014 17:08 9,3 C 7,2 C 73 % 999,7 hPa 0,0 l/m 0 min 2 min 0,0 UV-I 5 W/m 23,2 km/h (4 Bft)
06.02.2014 17:10 9,3 C 6,7 C 74 % 999,7 hPa 0,0 l/m 0 min 2 min 0,0 UV-I 5 W/m 30,9 km/h (5 Bft)
06.02.2014 17:12 9,2 C 6,7 C 74 % 999,7 hPa 0,0 l/m 0 min 2 min 0,0 UV-I 5 W/m 30,9 km/h (5 Bft)
06.02.2014 17:14 9,2 C 6,7 C 75 % 999,7 hPa 0,0 l/m 0 min 2 min 0,0 UV-I 5 W/m 15,4 km/h (3 Bft)
06.02.2014 17:16 9,1 C 6,1 C 76 % 999,5 hPa 0,0 l/m 0 min 2 min 0,0 UV-I 0 W/m 23,2 km/h (4 Bft)
06.02.2014 17:18 9,0 C 6,1 C 77 % 999,5 hPa 0,0 l/m 0 min 2 min 0,0 UV-I 0 W/m 18,0 km/h (3 Bft)
06.02.2014 17:20 8,9 C 5,6 C 78 % 999,5 hPa 0,0 l/m 0 min 2 min 0,0 UV-I 0 W/m 28,3 km/h (4 Bft)
06.02.2014 17:22 8,7 C 5,6 C 78 % 999,4 hPa 0,0 l/m 0 min 2 min 0,0 UV-I 0 W/m 25,7 km/h (4 Bft)
06.02.2014 17:24 8,7 C 5,6 C 79 % 999,4 hPa 0,0 l/m 0 min 2 min 0,0 UV-I 0 W/m 25,7 km/h (4 Bft)
06.02.2014 17:26 8,6 C 5,6 C 80 % 999,3 hPa 0,0 l/m 0 min 2 min 0,0 UV-I 0 W/m 23,2 km/h (4 Bft)
06.02.2014 17:28 8,5 C 5,6 C 80 % 999,3 hPa 0,0 l/m 0 min 2 min 0,0 UV-I 0 W/m 25,7 km/h (4 Bft)
06.02.2014 17:30 8,4 C 5,6 C 80 % 999,1 hPa 0,0 l/m 0 min 2 min 0,0 UV-I 0 W/m 23,2 km/h (4 Bft)
06.02.2014 17:32 8,4 C 5,6 C 81 % 999,1 hPa 0,0 l/m 0 min 2 min 0,0 UV-I 0 W/m 23,2 km/h (4 Bft)
06.02.2014 17:34 8,3 C 5,6 C 81 % 999,1 hPa 0,0 l/m 0 min 2 min 0,0 UV-I 0 W/m 18,0 km/h (3 Bft)
06.02.2014 17:36 8,2 C 5,6 C 82 % 999,1 hPa 0,0 l/m 0 min 2 min 0,0 UV-I 0 W/m 28,3 km/h (4 Bft)
06.02.2014 17:38 8,2 C 5,6 C 82 % 999,0 hPa 0,0 l/m 0 min 2 min 0,0 UV-I 0 W/m 20,6 km/h (4 Bft)
06.02.2014 17:40 8,2 C 5,6 C 82 % 998,9 hPa 0,0 l/m 0 min 2 min 0,0 UV-I 0 W/m 23,2 km/h (4 Bft)
06.02.2014 17:42 8,1 C 5,6 C 83 % 998,9 hPa 0,0 l/m 0 min 2 min 0,0 UV-I 0 W/m 25,7 km/h (4 Bft)
06.02.2014 17:44 8,1 C 5,6 C 83 % 998,8 hPa 0,0 l/m 0 min 2 min 0,0 UV-I 0 W/m 23,2 km/h (4 Bft)
06.02.2014 17:46 8,1 C 5,6 C 83 % 998,7 hPa 0,0 l/m 0 min 2 min 0,0 UV-I 0 W/m 28,3 km/h (4 Bft)
06.02.2014 17:48 8,1 C 5,6 C 83 % 998,8 hPa 0,2 l/m 0 min 2 min 0,0 UV-I 0 W/m 28,3 km/h (4 Bft)
06.02.2014 17:50 8,1 C 5,6 C 84 % 998,7 hPa 0,0 l/m 0 min 2 min 0,0 UV-I 0 W/m 30,9 km/h (5 Bft)
06.02.2014 17:52 8,1 C 5,6 C 84 % 998,8 hPa 0,0 l/m 0 min 2 min 0,0 UV-I 0 W/m 18,0 km/h (3 Bft)
06.02.2014 17:54 8,0 C 5,0 C 84 % 998,7 hPa 0,0 l/m 0 min 2 min 0,0 UV-I 0 W/m 23,2 km/h (4 Bft)
06.02.2014 17:56 7,9 C 5,0 C 85 % 998,7 hPa 0,0 l/m 0 min 2 min 0,0 UV-I 0 W/m 20,6 km/h (4 Bft)
06.02.2014 17:58 7,8 C 5,0 C 85 % 998,7 hPa 0,0 l/m 0 min 2 min 0,0 UV-I 0 W/m 33,5 km/h (5 Bft)
06.02.2014 18:00 7,8 C 5,0 C 86 % 998,6 hPa 0,2 l/m 0 min 2 min 0,0 UV-I 0 W/m 36,0 km/h (5 Bft)
06.02.2014 18:02 7,7 C 5,0 C 86 % 998,6 hPa 0,0 l/m 0 min 2 min 0,0 UV-I 0 W/m 25,7 km/h (4 Bft)
06.02.2014 18:04 7,7 C 5,0 C 87 % 998,7 hPa 0,0 l/m 0 min 2 min 0,0 UV-I 0 W/m 51,5 km/h (7 Bft)
06.02.2014 18:06 7,6 C 5,0 C 87 % 998,6 hPa 0,2 l/m 0 min 2 min 0,0 UV-I 0 W/m 23,2 km/h (4 Bft)
06.02.2014 18:08 7,6 C 5,0 C 87 % 998,5 hPa 0,0 l/m 0 min 2 min 0,0 UV-I 0 W/m 30,9 km/h (5 Bft)
06.02.2014 18:10 7,4 C 5,0 C 87 % 998,6 hPa 0,2 l/m 0 min 2 min 0,0 UV-I 0 W/m 33,5 km/h (5 Bft)
06.02.2014 18:12 7,4 C 5,0 C 88 % 998,6 hPa 0,0 l/m 0 min 2 min 0,0 UV-I 0 W/m 25,7 km/h (4 Bft)
06.02.2014 18:14 7,3 C 5,0 C 88 % 998,6 hPa 0,2 l/m 0 min 2 min 0,0 UV-I 0 W/m 38,6 km/h (5 Bft)
06.02.2014 18:16 7,3 C 5,0 C 88 % 998,6 hPa 0,2 l/m 0 min 2 min 0,0 UV-I 0 W/m 38,6 km/h (5 Bft)
06.02.2014 18:18 7,2 C 5,0 C 89 % 998,6 hPa 0,0 l/m 0 min 2 min 0,0 UV-I 0 W/m 23,2 km/h (4 Bft)
06.02.2014 18:20 7,1 C 5,0 C 89 % 998,6 hPa 0,0 l/m 0 min 2 min 0,0 UV-I 0 W/m 25,7 km/h (4 Bft)
06.02.2014 18:22 7,1 C 5,0 C 89 % 998,6 hPa 0,2 l/m 0 min 2 min 0,0 UV-I 0 W/m 36,0 km/h (5 Bft)
06.02.2014 18:24 7,0 C 5,0 C 90 % 998,5 hPa 0,0 l/m 0 min 2 min 0,0 UV-I 0 W/m 30,9 km/h (5 Bft)
06.02.2014 18:26 6,9 C 5,0 C 90 % 998,5 hPa 0,0 l/m 0 min 2 min 0,0 UV-I 0 W/m 18,0 km/h (3 Bft)
06.02.2014 18:28 6,9 C 5,0 C 90 % 998,4 hPa 0,2 l/m 0 min 2 min 0,0 UV-I 0 W/m 30,9 km/h (5 Bft)
06.02.2014 18:30 6,8 C 5,0 C 90 % 998,4 hPa 0,0 l/m 0 min 2 min 0,0 UV-I 0 W/m 20,6 km/h (4 Bft)
06.02.2014 18:32 6,8 C 5,0 C 91 % 998,3 hPa 0,2 l/m 0 min 2 min 0,0 UV-I 0 W/m 23,2 km/h (4 Bft)
06.02.2014 18:34 6,7 C 5,0 C 91 % 998,4 hPa 0,0 l/m 0 min 2 min 0,0 UV-I 0 W/m 18,0 km/h (3 Bft)
06.02.2014 18:36 6,7 C 5,0 C 91 % 998,4 hPa 0,0 l/m 0 min 2 min 0,0 UV-I 0 W/m 20,6 km/h (4 Bft)
06.02.2014 18:38 6,7 C 5,0 C 91 % 998,3 hPa 0,0 l/m 0 min 2 min 0,0 UV-I 0 W/m 18,0 km/h (3 Bft)
06.02.2014 18:40 6,7 C 5,0 C 91 % 998,3 hPa 0,2 l/m 0 min 2 min 0,0 UV-I 0 W/m 28,3 km/h (4 Bft)
06.02.2014 18:42 6,6 C 5,0 C 91 % 998,2 hPa 0,0 l/m 0 min 2 min 0,0 UV-I 0 W/m 23,2 km/h (4 Bft)
06.02.2014 18:44 6,6 C 5,0 C 92 % 998,1 hPa 0,0 l/m 0 min 2 min 0,0 UV-I 0 W/m 15,4 km/h (3 Bft)
06.02.2014 18:46 6,6 C 5,0 C 92 % 998,0 hPa 0,2 l/m 0 min 2 min 0,0 UV-I 0 W/m 12,9 km/h (3 Bft)
06.02.2014 18:48 6,5 C 4,4 C 92 % 997,9 hPa 0,0 l/m 0 min 2 min 0,0 UV-I 0 W/m 18,0 km/h (3 Bft)
06.02.2014 18:50 6,5 C 4,4 C 92 % 997,9 hPa 0,0 l/m 0 min 2 min 0,0 UV-I 0 W/m 20,6 km/h (4 Bft)
06.02.2014 18:52 6,5 C 4,4 C 92 % 997,7 hPa 0,2 l/m 0 min 2 min 0,0 UV-I 0 W/m 20,6 km/h (4 Bft)
06.02.2014 18:54 6,4 C 4,4 C 92 % 997,6 hPa 0,0 l/m 0 min 2 min 0,0 UV-I 0 W/m 25,7 km/h (4 Bft)
06.02.2014 18:56 6,4 C 4,4 C 92 % 997,5 hPa 0,0 l/m 0 min 2 min 0,0 UV-I 0 W/m 18,0 km/h (3 Bft)
06.02.2014 18:58 6,4 C 4,4 C 93 % 997,4 hPa 0,2 l/m 0 min 2 min 0,0 UV-I 0 W/m 20,6 km/h (4 Bft)
06.02.2014 19:00 6,4 C 4,4 C 93 % 997,3 hPa 0,0 l/m 0 min 2 min 0,0 UV-I 0 W/m 30,9 km/h (5 Bft)
06.02.2014 19:02 6,4 C 4,4 C 93 % 997,3 hPa 0,0 l/m 0 min 2 min 0,0 UV-I 0 W/m 28,3 km/h (4 Bft)
06.02.2014 19:04 6,4 C 4,4 C 93 % 997,3 hPa 0,0 l/m 0 min 2 min 0,0 UV-I 0 W/m 23,2 km/h (4 Bft)
06.02.2014 19:06 6,4 C 4,4 C 93 % 997,2 hPa 0,0 l/m 0 min 2 min 0,0 UV-I 0 W/m 15,4 km/h (3 Bft)
06.02.2014 19:08 6,4 C 4,4 C 93 % 997,1 hPa 0,0 l/m 0 min 2 min 0,0 UV-I 0 W/m 18,0 km/h (3 Bft)
06.02.2014 19:10 6,4 C 4,4 C 93 % 997,1 hPa 0,0 l/m 0 min 2 min 0,0 UV-I 0 W/m 15,4 km/h (3 Bft)
06.02.2014 19:12 6,4 C 4,4 C 93 % 997,0 hPa 0,2 l/m 0 min 2 min 0,0 UV-I 0 W/m 15,4 km/h (3 Bft)
06.02.2014 19:14 6,4 C 4,4 C 93 % 997,0 hPa 0,0 l/m 0 min 2 min 0,0 UV-I 0 W/m 20,6 km/h (4 Bft)
06.02.2014 19:16 6,4 C 4,4 C 93 % 997,0 hPa 0,0 l/m 0 min 2 min 0,0 UV-I 0 W/m 18,0 km/h (3 Bft)
06.02.2014 19:18 6,4 C 4,4 C 93 % 996,9 hPa 0,0 l/m 0 min 2 min 0,0 UV-I 0 W/m 15,4 km/h (3 Bft)
06.02.2014 19:20 6,4 C 4,4 C 93 % 996,9 hPa 0,0 l/m 0 min 2 min 0,0 UV-I 0 W/m 25,7 km/h (4 Bft)
06.02.2014 19:22 6,4 C 4,4 C 93 % 996,7 hPa 0,0 l/m 0 min 2 min 0,0 UV-I 0 W/m 20,6 km/h (4 Bft)
06.02.2014 19:24 6,3 C 4,4 C 93 % 996,7 hPa 0,2 l/m 0 min 2 min 0,0 UV-I 0 W/m 28,3 km/h (4 Bft)
06.02.2014 19:26 6,3 C 4,4 C 93 % 996,7 hPa 0,0 l/m 0 min 2 min 0,0 UV-I 0 W/m 18,0 km/h (3 Bft)
06.02.2014 19:28 6,3 C 4,4 C 93 % 996,6 hPa 0,2 l/m 0 min 2 min 0,0 UV-I 0 W/m 30,9 km/h (5 Bft)
06.02.2014 19:30 6,3 C 4,4 C 93 % 996,6 hPa 0,0 l/m 0 min 2 min 0,0 UV-I 0 W/m 23,2 km/h (4 Bft)
06.02.2014 19:32 6,3 C 4,4 C 93 % 996,6 hPa 0,0 l/m 0 min 2 min 0,0 UV-I 0 W/m 25,7 km/h (4 Bft)
06.02.2014 19:34 6,3 C 4,4 C 93 % 996,5 hPa 0,0 l/m 0 min 2 min 0,0 UV-I 0 W/m 28,3 km/h (4 Bft)
06.02.2014 19:36 6,3 C 4,4 C 94 % 996,5 hPa 0,2 l/m 0 min 2 min 0,0 UV-I 0 W/m 20,6 km/h (4 Bft)
06.02.2014 19:38 6,3 C 4,4 C 94 % 996,5 hPa 0,0 l/m 0 min 2 min 0,0 UV-I 0 W/m 25,7 km/h (4 Bft)
06.02.2014 19:40 6,3 C 4,4 C 94 % 996,4 hPa 0,0 l/m 0 min 2 min 0,0 UV-I 0 W/m 30,9 km/h (5 Bft)
06.02.2014 19:42 6,4 C 4,4 C 94 % 996,3 hPa 0,0 l/m 0 min 2 min 0,0 UV-I 0 W/m 30,9 km/h (5 Bft)
06.02.2014 19:44 6,4 C 4,4 C 94 % 996,2 hPa 0,0 l/m 0 min 2 min 0,0 UV-I 0 W/m 25,7 km/h (4 Bft)
06.02.2014 19:46 6,4 C 4,4 C 94 % 996,3 hPa 0,0 l/m 0 min 2 min 0,0 UV-I 0 W/m 18,0 km/h (3 Bft)
06.02.2014 19:48 6,4 C 4,4 C 94 % 996,2 hPa 0,0 l/m 0 min 2 min 0,0 UV-I 0 W/m 25,7 km/h (4 Bft)
06.02.2014 19:50 6,4 C 4,4 C 94 % 996,1 hPa 0,0 l/m 0 min 0 min 0,0 UV-I 0 W/m 23,2 km/h (4 Bft)
06.02.2014 19:52 6,4 C 4,4 C 94 % 996,1 hPa 0,0 l/m 0 min 2 min 0,0 UV-I 0 W/m 25,7 km/h (4 Bft)
06.02.2014 19:54 6,4 C 4,4 C 94 % 996,1 hPa 0,0 l/m 0 min 2 min 0,0 UV-I 0 W/m 25,7 km/h (4 Bft)
06.02.2014 19:56 6,4 C 4,4 C 94 % 996,0 hPa 0,0 l/m 0 min 2 min 0,0 UV-I 0 W/m 20,6 km/h (4 Bft)
06.02.2014 19:58 6,4 C 4,4 C 94 % 996,0 hPa 0,2 l/m 0 min 2 min 0,0 UV-I 0 W/m 20,6 km/h (4 Bft)
06.02.2014 20:00 6,4 C 4,4 C 94 % 996,0 hPa 0,0 l/m 0 min 2 min 0,0 UV-I 0 W/m 28,3 km/h (4 Bft)
06.02.2014 20:02 6,4 C 4,4 C 94 % 995,9 hPa 0,0 l/m 0 min 2 min 0,0 UV-I 0 W/m 36,0 km/h (5 Bft)
06.02.2014 20:04 6,4 C 4,4 C 94 % 996,0 hPa 0,0 l/m 0 min 2 min 0,0 UV-I 0 W/m 30,9 km/h (5 Bft)
06.02.2014 20:06 6,4 C 4,4 C 94 % 995,9 hPa 0,0 l/m 0 min 2 min 0,0 UV-I 0 W/m 28,3 km/h (4 Bft)
06.02.2014 20:08 6,4 C 4,4 C 94 % 995,8 hPa 0,0 l/m 0 min 2 min 0,0 UV-I 0 W/m 38,6 km/h (5 Bft)
06.02.2014 20:10 6,4 C 4,4 C 94 % 995,7 hPa 0,0 l/m 0 min 2 min 0,0 UV-I 0 W/m 33,5 km/h (5 Bft)
06.02.2014 20:12 6,4 C 4,4 C 94 % 995,6 hPa 0,2 l/m 0 min 2 min 0,0 UV-I 0 W/m 38,6 km/h (5 Bft)
06.02.2014 20:14 6,4 C 4,4 C 94 % 995,5 hPa 0,0 l/m 0 min 2 min 0,0 UV-I 0 W/m 28,3 km/h (4 Bft)
06.02.2014 20:16 6,4 C 4,4 C 94 % 995,5 hPa 0,0 l/m 0 min 2 min 0,0 UV-I 0 W/m 25,7 km/h (4 Bft)
06.02.2014 20:18 6,4 C 4,4 C 94 % 995,4 hPa 0,2 l/m 0 min 2 min 0,0 UV-I 0 W/m 25,7 km/h (4 Bft)
06.02.2014 20:20 6,4 C 4,4 C 94 % 995,4 hPa 0,0 l/m 0 min 2 min 0,0 UV-I 0 W/m 23,2 km/h (4 Bft)
06.02.2014 20:22 6,4 C 4,4 C 94 % 995,3 hPa 0,0 l/m 0 min 2 min 0,0 UV-I 0 W/m 25,7 km/h (4 Bft)
06.02.2014 20:24 6,4 C 4,4 C 94 % 995,4 hPa 0,0 l/m 0 min 2 min 0,0 UV-I 0 W/m 23,2 km/h (4 Bft)
06.02.2014 20:26 6,4 C 4,4 C 94 % 995,4 hPa 0,0 l/m 0 min 2 min 0,0 UV-I 0 W/m 36,0 km/h (5 Bft)
06.02.2014 20:28 6,4 C 4,4 C 94 % 995,3 hPa 0,0 l/m 0 min 2 min 0,0 UV-I 0 W/m 23,2 km/h (4 Bft)
06.02.2014 20:30 6,4 C 4,4 C 94 % 995,4 hPa 0,0 l/m 0 min 2 min 0,0 UV-I 0 W/m 28,3 km/h (4 Bft)
06.02.2014 20:32 6,4 C 5,0 C 94 % 995,4 hPa 0,0 l/m 0 min 2 min 0,0 UV-I 0 W/m 23,2 km/h (4 Bft)
06.02.2014 20:34 6,4 C 5,0 C 94 % 995,3 hPa 0,0 l/m 0 min 2 min 0,0 UV-I 0 W/m 23,2 km/h (4 Bft)
06.02.2014 20:36 6,4 C 5,0 C 94 % 995,2 hPa 0,0 l/m 0 min 0 min 0,0 UV-I 0 W/m 28,3 km/h (4 Bft)
06.02.2014 20:38 6,4 C 5,0 C 94 % 995,2 hPa 0,0 l/m 0 min 0 min 0,0 UV-I 0 W/m 25,7 km/h (4 Bft)
06.02.2014 20:40 6,4 C 5,0 C 94 % 995,2 hPa 0,0 l/m 0 min 2 min 0,0 UV-I 0 W/m 30,9 km/h (5 Bft)
06.02.2014 20:42 6,4 C 5,0 C 94 % 995,0 hPa 0,0 l/m 0 min 2 min 0,0 UV-I 0 W/m 28,3 km/h (4 Bft)
06.02.2014 20:44 6,4 C 5,0 C 94 % 995,0 hPa 0,0 l/m 0 min 2 min 0,0 UV-I 0 W/m 20,6 km/h (4 Bft)
06.02.2014 20:46 6,5 C 5,0 C 94 % 995,0 hPa 0,0 l/m 0 min 2 min 0,0 UV-I 0 W/m 33,5 km/h (5 Bft)
06.02.2014 20:48 6,5 C 5,0 C 94 % 994,9 hPa 0,0 l/m 0 min 2 min 0,0 UV-I 0 W/m 28,3 km/h (4 Bft)
06.02.2014 20:50 6,5 C 5,0 C 94 % 994,9 hPa 0,0 l/m 0 min 2 min 0,0 UV-I 0 W/m 30,9 km/h (5 Bft)
06.02.2014 20:52 6,5 C 5,0 C 94 % 994,8 hPa 0,0 l/m 0 min 2 min 0,0 UV-I 0 W/m 25,7 km/h (4 Bft)
06.02.2014 20:54 6,6 C 5,0 C 94 % 994,8 hPa 0,0 l/m 0 min 2 min 0,0 UV-I 0 W/m 28,3 km/h (4 Bft)
06.02.2014 20:56 6,6 C 5,0 C 94 % 994,8 hPa 0,0 l/m 0 min 2 min 0,0 UV-I 0 W/m 30,9 km/h (5 Bft)
06.02.2014 20:58 6,6 C 5,0 C 94 % 994,6 hPa 0,0 l/m 0 min 2 min 0,0 UV-I 0 W/m 46,3 km/h (6 Bft)
06.02.2014 21:00 6,6 C 5,0 C 94 % 994,6 hPa 0,0 l/m 0 min 2 min 0,0 UV-I 0 W/m 28,3 km/h (4 Bft)
06.02.2014 21:02 6,6 C 5,0 C 94 % 994,5 hPa 0,0 l/m 0 min 2 min 0,0 UV-I 0 W/m 23,2 km/h (4 Bft)
06.02.2014 21:04 6,7 C 5,0 C 94 % 994,5 hPa 0,0 l/m 0 min 2 min 0,0 UV-I 0 W/m 18,0 km/h (3 Bft)
06.02.2014 21:06 6,7 C 5,0 C 94 % 994,4 hPa 0,0 l/m 0 min 2 min 0,0 UV-I 0 W/m 18,0 km/h (3 Bft)
06.02.2014 21:08 6,7 C 5,0 C 93 % 994,3 hPa 0,0 l/m 0 min 0 min 0,0 UV-I 0 W/m 25,7 km/h (4 Bft)
06.02.2014 21:10 6,7 C 5,0 C 93 % 994,3 hPa 0,0 l/m 0 min 0 min 0,0 UV-I 0 W/m 28,3 km/h (4 Bft)
06.02.2014 21:12 6,7 C 5,0 C 93 % 994,3 hPa 0,0 l/m 0 min 0 min 0,0 UV-I 0 W/m 23,2 km/h (4 Bft)
06.02.2014 21:14 6,7 C 5,0 C 93 % 994,3 hPa 0,0 l/m 0 min 2 min 0,0 UV-I 0 W/m 28,3 km/h (4 Bft)
06.02.2014 21:16 6,7 C 5,0 C 93 % 994,3 hPa 0,0 l/m 0 min 2 min 0,0 UV-I 0 W/m 46,3 km/h (6 Bft)
06.02.2014 21:18 6,7 C 5,0 C 93 % 994,2 hPa 0,0 l/m 0 min 0 min 0,0 UV-I 0 W/m 23,2 km/h (4 Bft)
06.02.2014 21:20 6,8 C 5,0 C 93 % 994,2 hPa 0,0 l/m 0 min 0 min 0,0 UV-I 0 W/m 18,0 km/h (3 Bft)
06.02.2014 21:22 6,8 C 5,0 C 93 % 994,1 hPa 0,0 l/m 0 min 0 min 0,0 UV-I 0 W/m 25,7 km/h (4 Bft)
06.02.2014 21:24 6,8 C 5,0 C 92 % 994,0 hPa 0,0 l/m 0 min 0 min 0,0 UV-I 0 W/m 20,6 km/h (4 Bft)
06.02.2014 21:26 6,8 C 5,0 C 92 % 993,9 hPa 0,0 l/m 0 min 0 min 0,0 UV-I 0 W/m 28,3 km/h (4 Bft)
06.02.2014 21:28 6,8 C 5,0 C 92 % 993,8 hPa 0,0 l/m 0 min 0 min 0,0 UV-I 0 W/m 23,2 km/h (4 Bft)
06.02.2014 21:30 6,8 C 4,4 C 92 % 993,9 hPa 0,0 l/m 0 min 2 min 0,0 UV-I 0 W/m 30,9 km/h (5 Bft)
06.02.2014 21:32 6,9 C 4,4 C 92 % 993,9 hPa 0,0 l/m 0 min 2 min 0,0 UV-I 0 W/m 23,2 km/h (4 Bft)
06.02.2014 21:34 6,9 C 4,4 C 91 % 993,8 hPa 0,0 l/m 0 min 0 min 0,0 UV-I 0 W/m 25,7 km/h (4 Bft)
06.02.2014 21:36 6,9 C 4,4 C 91 % 993,7 hPa 0,0 l/m 0 min 0 min 0,0 UV-I 0 W/m 23,2 km/h (4 Bft)
06.02.2014 21:38 6,9 C 4,4 C 91 % 993,7 hPa 0,0 l/m 0 min 0 min 0,0 UV-I 0 W/m 30,9 km/h (5 Bft)
06.02.2014 21:40 6,9 C 4,4 C 91 % 993,7 hPa 0,0 l/m 0 min 0 min 0,0 UV-I 0 W/m 33,5 km/h (5 Bft)
06.02.2014 21:42 6,9 C 4,4 C 91 % 993,7 hPa 0,0 l/m 0 min 0 min 0,0 UV-I 0 W/m 25,7 km/h (4 Bft)
06.02.2014 21:44 6,9 C 4,4 C 90 % 993,7 hPa 0,0 l/m 0 min 2 min 0,0 UV-I 0 W/m 28,3 km/h (4 Bft)
06.02.2014 21:46 7,0 C 4,4 C 90 % 993,6 hPa 0,0 l/m 0 min 0 min 0,0 UV-I 0 W/m 20,6 km/h (4 Bft)
06.02.2014 21:48 6,9 C 4,4 C 90 % 993,6 hPa 0,0 l/m 0 min 0 min 0,0 UV-I 0 W/m 28,3 km/h (4 Bft)
06.02.2014 21:50 7,0 C 4,4 C 90 % 993,6 hPa 0,0 l/m 0 min 0 min 0,0 UV-I 0 W/m 38,6 km/h (5 Bft)
06.02.2014 21:52 7,0 C 4,4 C 90 % 993,6 hPa 0,0 l/m 0 min 0 min 0,0 UV-I 0 W/m 38,6 km/h (5 Bft)
06.02.2014 21:54 7,1 C 4,4 C 90 % 993,6 hPa 0,0 l/m 0 min 0 min 0,0 UV-I 0 W/m 23,2 km/h (4 Bft)
06.02.2014 21:56 7,1 C 4,4 C 89 % 993,6 hPa 0,0 l/m 0 min 0 min 0,0 UV-I 0 W/m 30,9 km/h (5 Bft)
06.02.2014 21:58 7,1 C 4,4 C 89 % 993,6 hPa 0,0 l/m 0 min 0 min 0,0 UV-I 0 W/m 25,7 km/h (4 Bft)
06.02.2014 22:00 7,2 C 4,4 C 89 % 993,5 hPa 0,0 l/m 0 min 0 min 0,0 UV-I 0 W/m 20,6 km/h (4 Bft)
06.02.2014 22:02 7,2 C 5,0 C 89 % 993,6 hPa 0,0 l/m 0 min 0 min 0,0 UV-I 0 W/m 28,3 km/h (4 Bft)
06.02.2014 22:04 7,2 C 5,0 C 89 % 993,5 hPa 0,0 l/m 0 min 0 min 0,0 UV-I 0 W/m 25,7 km/h (4 Bft)
06.02.2014 22:06 7,2 C 5,0 C 89 % 993,5 hPa 0,0 l/m 0 min 0 min 0,0 UV-I 0 W/m 30,9 km/h (5 Bft)
06.02.2014 22:08 7,2 C 5,0 C 88 % 993,5 hPa 0,0 l/m 0 min 0 min 0,0 UV-I 0 W/m 25,7 km/h (4 Bft)
06.02.2014 22:10 7,3 C 5,0 C 88 % 993,3 hPa 0,0 l/m 0 min 0 min 0,0 UV-I 0 W/m 28,3 km/h (4 Bft)
06.02.2014 22:12 7,3 C 5,0 C 88 % 993,4 hPa 0,0 l/m 0 min 0 min 0,0 UV-I 0 W/m 33,5 km/h (5 Bft)
06.02.2014 22:14 7,3 C 5,0 C 88 % 993,4 hPa 0,0 l/m 0 min 0 min 0,0 UV-I 0 W/m 28,3 km/h (4 Bft)
06.02.2014 22:16 7,3 C 5,0 C 88 % 993,5 hPa 0,0 l/m 0 min 0 min 0,0 UV-I 0 W/m 25,7 km/h (4 Bft)
06.02.2014 22:18 7,3 C 5,0 C 87 % 993,4 hPa 0,0 l/m 0 min 0 min 0,0 UV-I 0 W/m 23,2 km/h (4 Bft)
06.02.2014 22:20 7,4 C 5,0 C 87 % 993,4 hPa 0,0 l/m 0 min 0 min 0,0 UV-I 0 W/m 20,6 km/h (4 Bft)
06.02.2014 22:22 7,4 C 5,0 C 87 % 993,2 hPa 0,0 l/m 0 min 0 min 0,0 UV-I 0 W/m 28,3 km/h (4 Bft)
06.02.2014 22:24 7,4 C 5,0 C 87 % 993,2 hPa 0,0 l/m 0 min 0 min 0,0 UV-I 0 W/m 25,7 km/h (4 Bft)
06.02.2014 22:26 7,4 C 5,0 C 87 % 993,1 hPa 0,0 l/m 0 min 0 min 0,0 UV-I 0 W/m 23,2 km/h (4 Bft)
06.02.2014 22:28 7,4 C 5,0 C 87 % 993,1 hPa 0,0 l/m 0 min 0 min 0,0 UV-I 0 W/m 25,7 km/h (4 Bft)
06.02.2014 22:30 7,4 C 5,0 C 87 % 993,0 hPa 0,0 l/m 0 min 0 min 0,0 UV-I 0 W/m 23,2 km/h (4 Bft)
06.02.2014 22:32 7,4 C 5,0 C 87 % 993,0 hPa 0,0 l/m 0 min 0 min 0,0 UV-I 0 W/m 25,7 km/h (4 Bft)
06.02.2014 22:34 7,4 C 5,0 C 87 % 993,0 hPa 0,0 l/m 0 min 0 min 0,0 UV-I 0 W/m 20,6 km/h (4 Bft)
06.02.2014 22:36 7,4 C 5,0 C 86 % 992,9 hPa 0,0 l/m 0 min 0 min 0,0 UV-I 0 W/m 25,7 km/h (4 Bft)
06.02.2014 22:38 7,5 C 5,0 C 86 % 992,9 hPa 0,0 l/m 0 min 0 min 0,0 UV-I 0 W/m 25,7 km/h (4 Bft)
06.02.2014 22:40 7,5 C 5,0 C 86 % 992,9 hPa 0,0 l/m 0 min 0 min 0,0 UV-I 0 W/m 25,7 km/h (4 Bft)
06.02.2014 22:42 7,5 C 5,0 C 86 % 992,8 hPa 0,0 l/m 0 min 0 min 0,0 UV-I 0 W/m 23,2 km/h (4 Bft)
06.02.2014 22:44 7,5 C 5,0 C 86 % 992,8 hPa 0,0 l/m 0 min 0 min 0,0 UV-I 0 W/m 20,6 km/h (4 Bft)
06.02.2014 22:46 7,6 C 5,0 C 86 % 992,7 hPa 0,0 l/m 0 min 0 min 0,0 UV-I 0 W/m 18,0 km/h (3 Bft)
06.02.2014 22:48 7,6 C 5,0 C 86 % 992,7 hPa 0,0 l/m 0 min 0 min 0,0 UV-I 0 W/m 20,6 km/h (4 Bft)
06.02.2014 22:50 7,7 C 5,0 C 85 % 992,6 hPa 0,0 l/m 0 min 0 min 0,0 UV-I 0 W/m 23,2 km/h (4 Bft)
06.02.2014 22:52 7,7 C 5,0 C 85 % 992,6 hPa 0,0 l/m 0 min 0 min 0,0 UV-I 0 W/m 33,5 km/h (5 Bft)
06.02.2014 22:54 7,8 C 5,0 C 84 % 992,6 hPa 0,0 l/m 0 min 0 min 0,0 UV-I 0 W/m 28,3 km/h (4 Bft)
06.02.2014 22:56 7,9 C 5,0 C 83 % 992,5 hPa 0,0 l/m 0 min 0 min 0,0 UV-I 0 W/m 23,2 km/h (4 Bft)
06.02.2014 22:58 8,0 C 5,0 C 83 % 992,6 hPa 0,0 l/m 0 min 0 min 0,0 UV-I 0 W/m 36,0 km/h (5 Bft)
06.02.2014 23:00 8,1 C 5,0 C 82 % 992,5 hPa 0,0 l/m 0 min 0 min 0,0 UV-I 0 W/m 25,7 km/h (4 Bft)
06.02.2014 23:02 8,2 C 5,0 C 82 % 992,4 hPa 0,0 l/m 0 min 0 min 0,0 UV-I 0 W/m 30,9 km/h (5 Bft)
06.02.2014 23:04 8,3 C 5,0 C 81 % 992,3 hPa 0,0 l/m 0 min 0 min 0,0 UV-I 0 W/m 30,9 km/h (5 Bft)
06.02.2014 23:06 8,3 C 5,0 C 81 % 992,3 hPa 0,0 l/m 0 min 0 min 0,0 UV-I 0 W/m 25,7 km/h (4 Bft)
06.02.2014 23:08 8,4 C 5,0 C 80 % 992,3 hPa 0,0 l/m 0 min 0 min 0,0 UV-I 0 W/m 36,0 km/h (5 Bft)
06.02.2014 23:10 8,4 C 5,0 C 80 % 992,4 hPa 0,0 l/m 0 min 0 min 0,0 UV-I 0 W/m 30,9 km/h (5 Bft)
06.02.2014 23:12 8,5 C 5,0 C 80 % 992,2 hPa 0,0 l/m 0 min 0 min 0,0 UV-I 0 W/m 25,7 km/h (4 Bft)
06.02.2014 23:14 8,6 C 5,0 C 80 % 992,4 hPa 0,0 l/m 0 min 0 min 0,0 UV-I 0 W/m 30,9 km/h (5 Bft)
06.02.2014 23:16 8,6 C 5,0 C 79 % 992,2 hPa 0,0 l/m 0 min 0 min 0,0 UV-I 0 W/m 23,2 km/h (4 Bft)
06.02.2014 23:18 8,7 C 5,0 C 79 % 992,3 hPa 0,0 l/m 0 min 0 min 0,0 UV-I 0 W/m 25,7 km/h (4 Bft)
06.02.2014 23:20 8,7 C 5,0 C 78 % 992,1 hPa 0,0 l/m 0 min 0 min 0,0 UV-I 0 W/m 33,5 km/h (5 Bft)
06.02.2014 23:22 8,7 C 5,0 C 78 % 992,2 hPa 0,0 l/m 0 min 0 min 0,0 UV-I 0 W/m 23,2 km/h (4 Bft)
06.02.2014 23:24 8,7 C 5,0 C 78 % 992,0 hPa 0,0 l/m 0 min 0 min 0,0 UV-I 0 W/m 33,5 km/h (5 Bft)
06.02.2014 23:26 8,7 C 5,0 C 78 % 992,0 hPa 0,0 l/m 0 min 0 min 0,0 UV-I 0 W/m 23,2 km/h (4 Bft)
06.02.2014 23:28 8,7 C 5,0 C 78 % 992,0 hPa 0,0 l/m 0 min 0 min 0,0 UV-I 0 W/m 28,3 km/h (4 Bft)
06.02.2014 23:30 8,7 C 5,0 C 78 % 991,9 hPa 0,0 l/m 0 min 0 min 0,0 UV-I 0 W/m 23,2 km/h (4 Bft)
06.02.2014 23:32 8,7 C 5,0 C 78 % 991,8 hPa 0,0 l/m 0 min 0 min 0,0 UV-I 0 W/m 23,2 km/h (4 Bft)
06.02.2014 23:34 8,7 C 5,0 C 78 % 991,9 hPa 0,0 l/m 0 min 0 min 0,0 UV-I 0 W/m 20,6 km/h (4 Bft)
06.02.2014 23:36 8,7 C 5,0 C 78 % 991,7 hPa 0,0 l/m 0 min 0 min 0,0 UV-I 0 W/m 23,2 km/h (4 Bft)
06.02.2014 23:38 8,7 C 5,0 C 78 % 991,7 hPa 0,0 l/m 0 min 0 min 0,0 UV-I 0 W/m 18,0 km/h (3 Bft)
06.02.2014 23:40 8,7 C 5,0 C 78 % 991,8 hPa 0,0 l/m 0 min 0 min 0,0 UV-I 0 W/m 23,2 km/h (4 Bft)
06.02.2014 23:42 8,7 C 5,0 C 78 % 991,8 hPa 0,0 l/m 0 min 0 min 0,0 UV-I 0 W/m 30,9 km/h (5 Bft)
06.02.2014 23:44 8,7 C 5,0 C 77 % 991,8 hPa 0,0 l/m 0 min 0 min 0,0 UV-I 0 W/m 20,6 km/h (4 Bft)
06.02.2014 23:46 8,7 C 5,0 C 78 % 991,8 hPa 0,0 l/m 0 min 0 min 0,0 UV-I 0 W/m 25,7 km/h (4 Bft)
06.02.2014 23:48 8,7 C 5,0 C 78 % 991,8 hPa 0,0 l/m 0 min 0 min 0,0 UV-I 0 W/m 20,6 km/h (4 Bft)
06.02.2014 23:50 8,7 C 5,0 C 77 % 991,7 hPa 0,0 l/m 0 min 0 min 0,0 UV-I 0 W/m 23,2 km/h (4 Bft)
06.02.2014 23:52 8,7 C 5,0 C 78 % 991,7 hPa 0,0 l/m 0 min 0 min 0,0 UV-I 0 W/m 33,5 km/h (5 Bft)
06.02.2014 23:54 8,7 C 5,0 C 77 % 991,7 hPa 0,0 l/m 0 min 0 min 0,0 UV-I 0 W/m 18,0 km/h (3 Bft)
06.02.2014 23:56 8,7 C 5,0 C 78 % 991,7 hPa 0,0 l/m 0 min 0 min 0,0 UV-I 0 W/m 30,9 km/h (5 Bft)
06.02.2014 23:58 8,7 C 5,0 C 78 % 991,7 hPa 0,0 l/m 0 min 0 min 0,0 UV-I 0 W/m 20,6 km/h (4 Bft)
_ Min-Zeit 08:28 08:12 15:16 23:36 - - - - - 05:14
Minimum _ 6,0 C 3,9 C 68 % 991,7 hPa - - - - - 0,0 km/h (0 Bft)
_ Max-Zeit 12:40 14:40 19:36 11:58 17:48 09:22 03:50 00:00 12:36 18:04
Maximum _ 10,4 C 10,0 C 94 % 1004,1 hPa 0,2 l/m 2 min 2 min 0,0 UV-I 396 W/m 51,5 km/h
SO (7 Bft)
Durchschnitt _ 7,9 C 6,2 C 81 % 999,8 hPa #4,0 l/m #3:04 h #4:42 h 0,0 UV-I 139 W/m 19,6 km/h (3 Bft)
© 2014 W. Hausmann